Air Quality Table

TIMESTAMP NO2 SO2 O3 PM10 TEMP HUM AIRPRES WS WD NO
2021-06-18 13:00 19.75 ug/m3 1.82 ug/m3 81.71 ug/m3 10.92 ug/m3 24.77 C 68.02 % 1,011.69 mbar 3.64 m/s 180.03 Deg 0.84 ug/m3
2021-06-18 12:00 17.08 ug/m3 1.82 ug/m3 81.66 ug/m3 17.11 ug/m3 23.93 C 74.58 % 1,011.53 mbar 4.64 m/s 165.48 Deg 0.88 ug/m3
2021-06-18 11:00 16.54 ug/m3 1.59 ug/m3 85.67 ug/m3 8.8 ug/m3 23.64 C 76.74 % 1,011.72 mbar 4.19 m/s 157.88 Deg 0.87 ug/m3
2021-06-18 10:00 22.67 ug/m3 1.44 ug/m3 85.99 ug/m3 9.47 ug/m3 23.69 C 73.77 % 1,011.86 mbar 3.09 m/s 167.12 Deg 1.09 ug/m3
2021-06-18 09:00 23.71 ug/m3 1.66 ug/m3 88.56 ug/m3 11.8 ug/m3 23.5 C 70.89 % 1,011.77 mbar 2.45 m/s 170.05 Deg 1.16 ug/m3
2021-06-18 08:00 23.85 ug/m3 1.69 ug/m3 85.49 ug/m3 19.11 ug/m3 22.94 C 79.97 % 1,011.63 mbar 1.83 m/s 149 Deg 1.19 ug/m3
2021-06-18 07:00 28.83 ug/m3 1.69 ug/m3 79.65 ug/m3 15.24 ug/m3 22.38 C 82.38 % 1,011.44 mbar 1.31 m/s 154.67 Deg 1.26 ug/m3
2021-06-18 06:00 29.39 ug/m3 1.76 ug/m3 80.4 ug/m3 18.41 ug/m3 21.59 C 84.72 % 1,011.27 mbar 0.35 m/s 152.28 Deg 1.19 ug/m3
2021-06-18 05:00 32.29 ug/m3 1.65 ug/m3 63.57 ug/m3 12.58 ug/m3 21.25 C 85.16 % 1,010.84 mbar 0.46 m/s 141.85 Deg 1.23 ug/m3
2021-06-18 04:00 26.2 ug/m3 1.65 ug/m3 78.34 ug/m3 12.62 ug/m3 21.34 C 84.41 % 1,010.89 mbar 0.29 m/s 147.93 Deg 1.08 ug/m3
2021-06-18 03:00 22.31 ug/m3 1.53 ug/m3 77.59 ug/m3 10.14 ug/m3 21.64 C 83.39 % 1,010.38 mbar 1.39 m/s 209.52 Deg 0.94 ug/m3
2021-06-18 02:00 25.77 ug/m3 1.7 ug/m3 74.78 ug/m3 9.12 ug/m3 21.71 C 82.68 % 1,010.55 mbar 1.5 m/s 194.53 Deg 0.98 ug/m3
2021-06-18 01:00 19.12 ug/m3 1.42 ug/m3 84.69 ug/m3 12.98 ug/m3 21.76 C 82.67 % 1,010.38 mbar 2 m/s 171.58 Deg 0.87 ug/m3
2021-06-18 00:00 21.71 ug/m3 1.62 ug/m3 80.53 ug/m3 23.15 ug/m3 21.86 C 82.12 % 1,010.31 mbar 2.8 m/s 154.38 Deg 0.89 ug/m3
2021-06-17 23:00 27.86 ug/m3 1.45 ug/m3 71.62 ug/m3 26.25 ug/m3 21.7 C 81.65 % 1,011.22 mbar 1.92 m/s 137.95 Deg 1.03 ug/m3
2021-06-17 22:00 30.27 ug/m3 1.74 ug/m3 75.15 ug/m3 20.56 ug/m3 21.84 C 80.2 % 1,011.90 mbar 0.57 m/s 171.32 Deg 1 ug/m3
2021-06-17 21:00 32.61 ug/m3 1.69 ug/m3 74.66 ug/m3 22.02 ug/m3 22.02 C 78.83 % 1,011.63 mbar 0.9 m/s 241.47 Deg 1 ug/m3
2021-06-17 20:00 26.27 ug/m3 1.56 ug/m3 77.84 ug/m3 35 ug/m3 22.26 C 77.11 % 1,010.88 mbar 2.16 m/s 180.73 Deg 0.85 ug/m3
2021-06-17 19:00 23.36 ug/m3 1.71 ug/m3 83.43 ug/m3 34.58 ug/m3 22.79 C 74.07 % 1,010.69 mbar 3.1 m/s 183.25 Deg 0.77 ug/m3
2021-06-17 18:00 20.69 ug/m3 1.58 ug/m3 89.71 ug/m3 19.35 ug/m3 23.47 C 70.25 % 1,010.62 mbar 3.06 m/s 191.05 Deg 0.7 ug/m3
2021-06-17 17:00 18.55 ug/m3 1.67 ug/m3 90.52 ug/m3 17.9 ug/m3 23.83 C 68.17 % 1,010.66 mbar 3.51 m/s 188.45 Deg 0.69 ug/m3
2021-06-17 16:00 18.42 ug/m3 1.77 ug/m3 91.74 ug/m3 13.14 ug/m3 24.17 C 65.99 % 1,010.88 mbar 3.68 m/s 200.5 Deg 0.68 ug/m3
2021-06-17 15:00 18.84 ug/m3 1.71 ug/m3 91.62 ug/m3 8.79 ug/m3 24.2 C 66.25 % 1,011.12 mbar 3.78 m/s 186.33 Deg 0.73 ug/m3
2021-06-17 14:00 17.76 ug/m3 1.71 ug/m3 91.97 ug/m3 8.06 ug/m3 24.06 C 68.47 % 1,011.38 mbar 4.19 m/s 186.1 Deg 0.73 ug/m3
2021-06-17 13:00 17.24 ug/m3 1.46 ug/m3 92.77 ug/m3 9.49 ug/m3 24.05 C 68.41 % 1,011.33 mbar 4.46 m/s 177.43 Deg 0.76 ug/m3
2021-06-17 12:00 19.26 ug/m3 1.72 ug/m3 94.52 ug/m3 7.34 ug/m3 24.07 C 68.15 % 1,011.50 mbar 4.42 m/s 177.25 Deg 0.85 ug/m3
2021-06-17 11:00 17.83 ug/m3 1.67 ug/m3 93.03 ug/m3 10.42 ug/m3 23.91 C 67.35 % 1,011.61 mbar 4.4 m/s 188.32 Deg 0.82 ug/m3
2021-06-17 10:00 16.5 ug/m3 1.62 ug/m3 91.89 ug/m3 15.68 ug/m3 23.34 C 71.33 % 1,011.27 mbar 3.92 m/s 175.6 Deg 0.91 ug/m3
2021-06-17 09:00 16.2 ug/m3 1.63 ug/m3 95.74 ug/m3 26.48 ug/m3 22.89 C 76.33 % 1,010.96 mbar 3.79 m/s 167.82 Deg 0.93 ug/m3
2021-06-17 08:00 17.59 ug/m3 1.6 ug/m3 99.16 ug/m3 29.42 ug/m3 22.56 C 78.39 % 1,010.62 mbar 3.39 m/s 164.43 Deg 1 ug/m3
2021-06-17 07:00 32.96 ug/m3 1.7 ug/m3 88.56 ug/m3 19.89 ug/m3 22.17 C 81.19 % 1,010.51 mbar 2.03 m/s 171.95 Deg 1.35 ug/m3
2021-06-17 06:00 41.08 ug/m3 1.63 ug/m3 63.46 ug/m3 16.08 ug/m3 21.12 C 86.61 % 1,010.37 mbar 1.29 m/s 209.45 Deg 1.53 ug/m3
2021-06-17 05:00 37.6 ug/m3 1.66 ug/m3 64.02 ug/m3 18.61 ug/m3 20.69 C 88.08 % 1,010.06 mbar 1.34 m/s 224.87 Deg 1.37 ug/m3
2021-06-17 04:00 34.12 ug/m3 1.77 ug/m3 64.33 ug/m3 12.05 ug/m3 20.9 C 87.96 % 1,009.61 mbar 1.39 m/s 211.5 Deg 1.13 ug/m3
2021-06-17 03:00 27.71 ug/m3 1.76 ug/m3 65.55 ug/m3 13.89 ug/m3 20.98 C 87 % 1,009.63 mbar 1.41 m/s 202.45 Deg 0.95 ug/m3
2021-06-17 02:00 26.34 ug/m3 1.64 ug/m3 80.6 ug/m3 12.77 ug/m3 21.04 C 85.33 % 1,010.22 mbar 1.2 m/s 222.78 Deg 0.98 ug/m3
2021-06-17 01:00 27.46 ug/m3 1.73 ug/m3 80.88 ug/m3 17.25 ug/m3 21.19 C 82.41 % 1,010.55 mbar 1.28 m/s 218.37 Deg 0.92 ug/m3
2021-06-17 00:00 36.35 ug/m3 1.73 ug/m3 71.97 ug/m3 13.75 ug/m3 21.6 C 79.44 % 1,010.50 mbar 1.76 m/s 205.23 Deg 1 ug/m3
2021-06-16 23:00 32.62 ug/m3 1.9 ug/m3 76.84 ug/m3 13.88 ug/m3 21.94 C 77.76 % 1,010.39 mbar 2.49 m/s 184.08 Deg 0.92 ug/m3
2021-06-16 22:00 32.28 ug/m3 1.64 ug/m3 77.26 ug/m3 17.23 ug/m3 22.08 C 77.53 % 1,010.28 mbar 2.75 m/s 187.33 Deg 0.86 ug/m3
2021-06-16 21:00 27 ug/m3 1.58 ug/m3 78.86 ug/m3 18.92 ug/m3 22.28 C 74.91 % 1,009.87 mbar 2.81 m/s 188.28 Deg 0.74 ug/m3
2021-06-16 20:00 26.49 ug/m3 1.6 ug/m3 83.6 ug/m3 30.01 ug/m3 22.64 C 67.76 % 1,009.49 mbar 3.48 m/s 191.75 Deg 0.74 ug/m3
2021-06-16 19:00 22.64 ug/m3 1.97 ug/m3 85.92 ug/m3 17.91 ug/m3 23.21 C 65.04 % 1,009.31 mbar 4.03 m/s 186.88 Deg 0.67 ug/m3
2021-06-16 18:00 19.76 ug/m3 1.96 ug/m3 85.55 ug/m3 16.74 ug/m3 23.78 C 62.47 % 1,009.11 mbar 4.09 m/s 190.72 Deg 0.65 ug/m3
2021-06-16 17:00 20.92 ug/m3 1.73 ug/m3 87.44 ug/m3 14.29 ug/m3 23.98 C 60.07 % 1,009.19 mbar 4.73 m/s 189.45 Deg 0.72 ug/m3
2021-06-16 16:00 15.06 ug/m3 1.78 ug/m3 90.25 ug/m3 10.82 ug/m3 24.02 C 59.69 % 1,009.55 mbar 4.58 m/s 165.1 Deg 0.57 ug/m3
2021-06-16 15:00 12.27 ug/m3 1.77 ug/m3 94.83 ug/m3 7.55 ug/m3 23.86 C 61.55 % 1,009.75 mbar 4.83 m/s 159.05 Deg 0.56 ug/m3
2021-06-16 14:00 3.93 ug/m3 2.13 ug/m3 99.25 ug/m3 6.33 ug/m3 23.97 C 59.88 % 1,009.84 mbar 4.92 m/s 158.25 Deg 24.32 ug/m3
2021-06-16 13:00 0 ug/m3 2.01 ug/m3 98.06 ug/m3 6.45 ug/m3 23.89 C 59.64 % 1,009.97 mbar 4.98 m/s 158.25 Deg 0 ug/m3
2021-06-16 12:00 0 ug/m3 1.81 ug/m3 96.07 ug/m3 6.54 ug/m3 24.22 C 47.29 % 1,010.01 mbar 4.51 m/s 157.69 Deg 0 ug/m3
2021-06-16 11:00 0 ug/m3 1.74 ug/m3 88.16 ug/m3 8.06 ug/m3 24.68 C 43 % 1,010.09 mbar 3.65 m/s 150.52 Deg 0 ug/m3
2021-06-16 10:00 0 ug/m3 1.97 ug/m3 90.81 ug/m3 9.82 ug/m3 24.74 C 40.87 % 1,010.00 mbar 2.37 m/s 161.08 Deg 0 ug/m3
2021-06-16 09:00 0 ug/m3 1.63 ug/m3 89.34 ug/m3 15.46 ug/m3 24.12 C 57.09 % 1,009.93 mbar 2.13 m/s 137.2 Deg 0 ug/m3
2021-06-16 08:00 0 ug/m3 1.87 ug/m3 83.57 ug/m3 15.9 ug/m3 23.55 C 65.06 % 1,009.80 mbar 1.2 m/s 143.83 Deg 0 ug/m3
2021-06-16 07:00 0 ug/m3 1.71 ug/m3 84.72 ug/m3 15.15 ug/m3 22.78 C 72.67 % 1,009.84 mbar 0.69 m/s 86.7 Deg 0 ug/m3
2021-06-16 06:00 0 ug/m3 1.77 ug/m3 85.79 ug/m3 20.37 ug/m3 21.38 C 78.39 % 1,009.78 mbar 0.82 m/s 104.67 Deg 0 ug/m3
2021-06-16 05:00 0 ug/m3 1.47 ug/m3 83.07 ug/m3 13.7 ug/m3 20.72 C 81.04 % 1,009.49 mbar 1.11 m/s 145.68 Deg 0 ug/m3
2021-06-16 04:00 0 ug/m3 1.79 ug/m3 83.83 ug/m3 8.4 ug/m3 20.6 C 80.26 % 1,009.30 mbar 1.2 m/s 152.88 Deg 0 ug/m3
2021-06-16 03:00 0 ug/m3 1.76 ug/m3 81.73 ug/m3 7.64 ug/m3 20.75 C 79.26 % 1,009.51 mbar 1.43 m/s 140.28 Deg 0 ug/m3
2021-06-16 02:00 0 ug/m3 1.53 ug/m3 83.41 ug/m3 10.21 ug/m3 21.04 C 77.81 % 1,009.92 mbar 1.99 m/s 139.5 Deg 0 ug/m3
2021-06-16 01:00 0 ug/m3 1.73 ug/m3 77.61 ug/m3 17.29 ug/m3 21.25 C 74.85 % 1,010.13 mbar 2.39 m/s 133.07 Deg 0 ug/m3
2021-06-16 00:00 0 ug/m3 1.86 ug/m3 75.13 ug/m3 13.44 ug/m3 21.42 C 73.88 % 1,010.35 mbar 2.43 m/s 126.5 Deg 0 ug/m3
2021-06-15 23:00 0 ug/m3 1.67 ug/m3 82.4 ug/m3 9.54 ug/m3 21.62 C 74.33 % 1,010.38 mbar 2.92 m/s 128.12 Deg 0 ug/m3
2021-06-15 22:00 0 ug/m3 1.78 ug/m3 87.31 ug/m3 14.56 ug/m3 21.84 C 73.7 % 1,010.24 mbar 3.5 m/s 126.02 Deg 0 ug/m3
2021-06-15 21:00 0 ug/m3 1.6 ug/m3 90.38 ug/m3 10.19 ug/m3 22.01 C 73.54 % 1,009.85 mbar 3.99 m/s 123.87 Deg 0 ug/m3
2021-06-15 20:00 0 ug/m3 1.75 ug/m3 93.95 ug/m3 7.83 ug/m3 22.37 C 67.35 % 1,009.57 mbar 3.61 m/s 117.52 Deg 0 ug/m3
2021-06-15 19:00 0 ug/m3 1.81 ug/m3 95.36 ug/m3 9.59 ug/m3 22.96 C 63.45 % 1,009.21 mbar 4.41 m/s 108.62 Deg 0 ug/m3
2021-06-15 18:00 0 ug/m3 1.39 ug/m3 98.39 ug/m3 12.46 ug/m3 23.32 C 62.67 % 1,008.90 mbar 5.18 m/s 109.77 Deg 0 ug/m3
2021-06-15 17:00 0 ug/m3 1.72 ug/m3 99.69 ug/m3 16.57 ug/m3 23.39 C 72.55 % 1,008.95 mbar 5.45 m/s 109.07 Deg 0 ug/m3
2021-06-15 16:00 0 ug/m3 1.87 ug/m3 99.89 ug/m3 10.4 ug/m3 23.64 C 75.18 % 1,008.66 mbar 6.21 m/s 105.17 Deg 0 ug/m3
2021-06-15 15:00 0 ug/m3 2.1 ug/m3 100.02 ug/m3 10.72 ug/m3 23.75 C 78.58 % 1,008.79 mbar 6.06 m/s 105.2 Deg 0 ug/m3
2021-06-15 14:00 0 ug/m3 1.55 ug/m3 105.13 ug/m3 14.06 ug/m3 23.85 C 81.54 % 1,008.81 mbar 5.29 m/s 103.05 Deg 0 ug/m3
2021-06-15 13:00 0 ug/m3 1.71 ug/m3 111.57 ug/m3 23.04 ug/m3 24.23 C 82.09 % 1,008.88 mbar 5.05 m/s 91.68 Deg 0 ug/m3
2021-06-15 12:00 0 ug/m3 1.7 ug/m3 120.26 ug/m3 14.49 ug/m3 24.48 C 76.43 % 1,008.94 mbar 3.91 m/s 63.38 Deg 0 ug/m3
2021-06-15 11:00 0 ug/m3 1.84 ug/m3 120.33 ug/m3 16.86 ug/m3 24.46 C 72.91 % 1,008.76 mbar 4.15 m/s 43.83 Deg 0 ug/m3
2021-06-15 10:00 0 ug/m3 1.68 ug/m3 110.2 ug/m3 20.24 ug/m3 24.63 C 73.16 % 1,008.36 mbar 3.81 m/s 64.15 Deg 0 ug/m3
2021-06-15 09:00 0 ug/m3 1.72 ug/m3 95.63 ug/m3 25.14 ug/m3 24.19 C 79.63 % 1,008.09 mbar 3.27 m/s 88.28 Deg 0 ug/m3
2021-06-15 08:00 0 ug/m3 1.56 ug/m3 76 ug/m3 31.62 ug/m3 23.68 C 83.39 % 1,007.72 mbar 3.73 m/s 212.9 Deg 0 ug/m3
2021-06-15 07:00 0 ug/m3 1.71 ug/m3 80.34 ug/m3 21.32 ug/m3 23.06 C 84.15 % 1,007.30 mbar 2.83 m/s 301.28 Deg 0 ug/m3
2021-06-15 06:00 0 ug/m3 1.46 ug/m3 76.52 ug/m3 8.95 ug/m3 22.06 C 84.2 % 1,007.27 mbar 2.15 m/s 301.4 Deg 0 ug/m3
2021-06-15 05:00 0 ug/m3 1.6 ug/m3 80.14 ug/m3 4.77 ug/m3 21.75 C 88.09 % 1,007.21 mbar 1.71 m/s 295.27 Deg 0 ug/m3
2021-06-15 04:00 0 ug/m3 1.46 ug/m3 84.48 ug/m3 6.4 ug/m3 21.82 C 85.83 % 1,007.30 mbar 1.37 m/s 273.92 Deg 0 ug/m3
2021-06-15 03:00 0 ug/m3 1.64 ug/m3 87.41 ug/m3 10.09 ug/m3 21.76 C 87.88 % 1,007.45 mbar 1.1 m/s 296.47 Deg 0 ug/m3
2021-06-15 02:00 0 ug/m3 1.59 ug/m3 100.97 ug/m3 17.32 ug/m3 22.19 C 89.59 % 1,007.66 mbar 1.65 m/s 283.13 Deg 0 ug/m3
2021-06-15 01:00 0 ug/m3 1.67 ug/m3 102.83 ug/m3 28.01 ug/m3 22.34 C 84.4 % 1,007.83 mbar 1.66 m/s 278.1 Deg 0 ug/m3
2021-06-15 00:00 0 ug/m3 1.63 ug/m3 93.62 ug/m3 33.24 ug/m3 22.44 C 86.11 % 1,008.11 mbar 1.07 m/s 253.77 Deg 0 ug/m3
2021-06-14 23:00 0 ug/m3 1.38 ug/m3 102.19 ug/m3 14.82 ug/m3 23.03 C 77.06 % 1,008.44 mbar 0.98 m/s 277.22 Deg 0 ug/m3
2021-06-14 22:00 0 ug/m3 1.67 ug/m3 106.47 ug/m3 11.88 ug/m3 23.42 C 68.43 % 1,008.56 mbar 1.1 m/s 281.87 Deg 0 ug/m3
2021-06-14 21:00 0 ug/m3 1.57 ug/m3 113.01 ug/m3 12 ug/m3 23.76 C 66.72 % 1,008.35 mbar 1.28 m/s 284.88 Deg 0 ug/m3
2021-06-14 20:00 0 ug/m3 1.87 ug/m3 107.29 ug/m3 17.34 ug/m3 23.89 C 70.15 % 1,008.02 mbar 1.27 m/s 259.13 Deg 0 ug/m3
2021-06-14 19:00 0 ug/m3 1.63 ug/m3 98.52 ug/m3 33.65 ug/m3 24.04 C 75.96 % 1,007.84 mbar 2.11 m/s 229.17 Deg 0 ug/m3
2021-06-14 18:00 0 ug/m3 1.83 ug/m3 115.06 ug/m3 21.06 ug/m3 24.2 C 76.44 % 1,007.82 mbar 3.02 m/s 214.77 Deg 0 ug/m3
2021-06-14 17:00 0 ug/m3 1.97 ug/m3 127.65 ug/m3 9.06 ug/m3 24.54 C 67.21 % 1,008.29 mbar 3.7 m/s 173.78 Deg 0 ug/m3
2021-06-14 16:00 0 ug/m3 1.92 ug/m3 128.41 ug/m3 6.8 ug/m3 25.16 C 60.12 % 1,008.70 mbar 3.55 m/s 122.27 Deg 0 ug/m3
2021-06-14 15:00 0 ug/m3 1.89 ug/m3 124.53 ug/m3 10.12 ug/m3 25.75 C 57.05 % 1,009.17 mbar 2.81 m/s 79.67 Deg 0 ug/m3
2021-06-14 14:00 0 ug/m3 2.07 ug/m3 125.01 ug/m3 14.23 ug/m3 25.79 C 57.76 % 1,009.34 mbar 2.82 m/s 74.48 Deg 0 ug/m3
2021-06-14 13:00 0 ug/m3 1.78 ug/m3 109.1 ug/m3 22.71 ug/m3 24.68 C 75.65 % 1,009.78 mbar 2.79 m/s 61.15 Deg 0 ug/m3
2021-06-14 12:00 0 ug/m3 1.79 ug/m3 110.17 ug/m3 38.41 ug/m3 24.53 C 78.95 % 1,009.93 mbar 2.83 m/s 62.52 Deg 0 ug/m3
2021-06-14 11:00 0 ug/m3 1.89 ug/m3 96.66 ug/m3 30.74 ug/m3 24.7 C 73.18 % 1,009.79 mbar 3.8 m/s 68.97 Deg 0 ug/m3
2021-06-14 10:00 0 ug/m3 1.84 ug/m3 92.99 ug/m3 44.96 ug/m3 26.79 C 64.46 % 1,009.38 mbar 2.27 m/s 119.28 Deg 0 ug/m3
2021-06-14 09:00 0 ug/m3 1.92 ug/m3 87.02 ug/m3 28.83 ug/m3 26.15 C 67.32 % 1,009.27 mbar 1.63 m/s 243.87 Deg 0 ug/m3
2021-06-14 08:00 0 ug/m3 1.76 ug/m3 89.15 ug/m3 32.95 ug/m3 24.41 C 74.61 % 1,009.31 mbar 1.96 m/s 293.5 Deg 0 ug/m3
2021-06-14 07:00 0 ug/m3 1.63 ug/m3 79.73 ug/m3 44.46 ug/m3 22.8 C 80.23 % 1,009.39 mbar 1.95 m/s 301.53 Deg 0 ug/m3
2021-06-14 06:00 0 ug/m3 2.06 ug/m3 55.54 ug/m3 20.35 ug/m3 21.89 C 72.83 % 1,009.51 mbar 1.57 m/s 308.88 Deg 0 ug/m3
2021-06-14 05:00 0 ug/m3 1.95 ug/m3 58.71 ug/m3 10.71 ug/m3 21.97 C 54.64 % 1,009.20 mbar 1.08 m/s 312.35 Deg 0 ug/m3
2021-06-14 04:00 0 ug/m3 1.73 ug/m3 78.26 ug/m3 7.44 ug/m3 22.12 C 60.32 % 1,009.28 mbar 0.86 m/s 236.63 Deg 0 ug/m3
2021-06-14 03:00 0 ug/m3 1.65 ug/m3 96.07 ug/m3 6.89 ug/m3 22.38 C 58.2 % 1,009.53 mbar 0.81 m/s 263.85 Deg 0 ug/m3
2021-06-14 02:00 0 ug/m3 1.59 ug/m3 99.47 ug/m3 10.5 ug/m3 22.81 C 53.33 % 1,010.02 mbar 1.12 m/s 280.2 Deg 0 ug/m3
2021-06-14 01:00 0 ug/m3 1.64 ug/m3 87.33 ug/m3 16 ug/m3 22.72 C 52.91 % 1,010.61 mbar 0.62 m/s 260.68 Deg 0 ug/m3
2021-06-14 00:00 0 ug/m3 1.62 ug/m3 90.92 ug/m3 27.75 ug/m3 22.55 C 66.09 % 1,011.02 mbar 0.95 m/s 274.55 Deg 0 ug/m3
2021-06-13 23:00 0 ug/m3 1.68 ug/m3 95.22 ug/m3 32.94 ug/m3 22.75 C 78.11 % 1,011.13 mbar 1.19 m/s 286.38 Deg 0 ug/m3
2021-06-13 22:00 0 ug/m3 1.61 ug/m3 103.26 ug/m3 34.61 ug/m3 22.95 C 80.99 % 1,011.20 mbar 1.5 m/s 277.65 Deg 0 ug/m3
2021-06-13 21:00 0 ug/m3 1.51 ug/m3 87.35 ug/m3 33.7 ug/m3 23.52 C 79.34 % 1,010.87 mbar 1.85 m/s 259.12 Deg 0 ug/m3
2021-06-13 20:00 0 ug/m3 1.71 ug/m3 102.12 ug/m3 35.48 ug/m3 23.94 C 78.72 % 1,010.62 mbar 1.29 m/s 254.05 Deg 0 ug/m3
2021-06-13 19:00 0 ug/m3 1.68 ug/m3 123.06 ug/m3 26.72 ug/m3 24.7 C 73.72 % 1,010.43 mbar 1.75 m/s 102.32 Deg 0 ug/m3
2021-06-13 18:00 0 ug/m3 1.63 ug/m3 124.47 ug/m3 20.93 ug/m3 25.22 C 68.56 % 1,010.40 mbar 2.2 m/s 251.82 Deg 0 ug/m3
2021-06-13 17:00 0 ug/m3 1.78 ug/m3 128.8 ug/m3 10.16 ug/m3 25.11 C 62.42 % 1,010.56 mbar 2.73 m/s 202.1 Deg 0 ug/m3
2021-06-13 16:00 0 ug/m3 1.86 ug/m3 127.53 ug/m3 5.74 ug/m3 24.92 C 60.79 % 1,010.69 mbar 3.37 m/s 172.1 Deg 0 ug/m3
2021-06-13 15:00 0 ug/m3 1.96 ug/m3 150.22 ug/m3 6.33 ug/m3 25.19 C 63.72 % 1,010.82 mbar 3.38 m/s 127 Deg 0 ug/m3
2021-06-13 14:00 0 ug/m3 1.96 ug/m3 143.05 ug/m3 5.44 ug/m3 25.01 C 63.95 % 1,011.17 mbar 3.39 m/s 111.27 Deg 0 ug/m3
2021-06-13 13:00 0 ug/m3 1.92 ug/m3 130.94 ug/m3 4.36 ug/m3 25.24 C 60.79 % 1,011.49 mbar 2.93 m/s 92.65 Deg 0 ug/m3
2021-06-13 12:00 0 ug/m3 1.73 ug/m3 126.06 ug/m3 5.32 ug/m3 25.26 C 59.87 % 1,011.68 mbar 2.86 m/s 84.05 Deg 0 ug/m3
2021-06-13 11:00 0 ug/m3 1.62 ug/m3 121.94 ug/m3 10 ug/m3 25.08 C 58.95 % 1,011.56 mbar 2.3 m/s 79.43 Deg 0 ug/m3
2021-06-13 10:00 0 ug/m3 1.73 ug/m3 113.07 ug/m3 20.01 ug/m3 24.07 C 72.08 % 1,011.42 mbar 2.06 m/s 67.62 Deg 0 ug/m3
2021-06-13 09:00 0 ug/m3 1.52 ug/m3 108.44 ug/m3 31.2 ug/m3 23.18 C 80.73 % 1,011.43 mbar 2.16 m/s 46.62 Deg 0 ug/m3
2021-06-13 08:00 0 ug/m3 1.79 ug/m3 100.19 ug/m3 36.07 ug/m3 22.51 C 85.82 % 1,011.29 mbar 1.89 m/s 59.4 Deg 0 ug/m3
2021-06-13 07:00 0 ug/m3 1.71 ug/m3 66.75 ug/m3 40.29 ug/m3 21.96 C 87.63 % 1,010.78 mbar 1.03 m/s 127.42 Deg 0 ug/m3
2021-06-13 06:00 0 ug/m3 1.59 ug/m3 64.85 ug/m3 39.17 ug/m3 20.83 C 92.85 % 1,010.24 mbar 0.59 m/s 263.87 Deg 0 ug/m3
2021-06-13 05:00 0 ug/m3 1.66 ug/m3 61.97 ug/m3 25.32 ug/m3 20.57 C 93.72 % 1,010.00 mbar 0.52 m/s 263.73 Deg 0 ug/m3
2021-06-13 04:00 0 ug/m3 1.66 ug/m3 86.58 ug/m3 20.15 ug/m3 20.66 C 94.12 % 1,009.79 mbar 0.98 m/s 272.7 Deg 0 ug/m3
2021-06-13 03:00 0 ug/m3 1.68 ug/m3 68.25 ug/m3 21.96 ug/m3 21.57 C 80.29 % 1,010.02 mbar 1.21 m/s 268.88 Deg 0 ug/m3
2021-06-13 02:00 0 ug/m3 1.56 ug/m3 68.77 ug/m3 23.14 ug/m3 22.07 C 69.01 % 1,010.21 mbar 0.59 m/s 101.83 Deg 0 ug/m3
2021-06-13 01:00 0 ug/m3 1.72 ug/m3 82.55 ug/m3 15.3 ug/m3 22.49 C 64.47 % 1,010.48 mbar 1 m/s 300.05 Deg 0 ug/m3
2021-06-13 00:00 0 ug/m3 1.64 ug/m3 74.3 ug/m3 10.38 ug/m3 22.72 C 60.73 % 1,010.80 mbar 0.71 m/s 258.12 Deg 0 ug/m3
2021-06-12 23:00 0 ug/m3 1.73 ug/m3 79.86 ug/m3 12.18 ug/m3 23.16 C 57.77 % 1,010.68 mbar 1.35 m/s 312.35 Deg 0 ug/m3
2021-06-12 22:00 0 ug/m3 1.49 ug/m3 83.19 ug/m3 18.97 ug/m3 22.71 C 75.42 % 1,010.37 mbar 1.59 m/s 305.48 Deg 0 ug/m3
2021-06-12 21:00 0 ug/m3 1.39 ug/m3 91.74 ug/m3 33.82 ug/m3 23.09 C 76.8 % 1,010.00 mbar 2.06 m/s 311.42 Deg 0 ug/m3
2021-06-12 20:00 9.32 ug/m3 1.6 ug/m3 90.16 ug/m3 32.25 ug/m3 23.32 C 83.18 % 1,009.80 mbar 2.39 m/s 262.93 Deg 0.14 ug/m3
2021-06-12 19:00 13.9 ug/m3 1.7 ug/m3 100.13 ug/m3 42.63 ug/m3 24.04 C 79.1 % 1,009.51 mbar 2 m/s 177.98 Deg 0.61 ug/m3
2021-06-12 18:00 9.1 ug/m3 1.52 ug/m3 182.62 ug/m3 41.33 ug/m3 24.52 C 80.53 % 1,009.08 mbar 2.06 m/s 102.38 Deg 0.54 ug/m3
2021-06-12 17:00 3.17 ug/m3 1.61 ug/m3 112.22 ug/m3 18.48 ug/m3 25.17 C 74.88 % 1,009.01 mbar 2.67 m/s 235.52 Deg 0.42 ug/m3
2021-06-12 16:00 2.42 ug/m3 1.64 ug/m3 108.2 ug/m3 16.52 ug/m3 24.83 C 74.58 % 1,009.35 mbar 3.01 m/s 230.13 Deg 0.5 ug/m3
2021-06-12 15:00 8.6 ug/m3 1.73 ug/m3 111.23 ug/m3 22.87 ug/m3 25.05 C 72.23 % 1,009.19 mbar 3.12 m/s 184.2 Deg 1.07 ug/m3
2021-06-12 14:00 2.82 ug/m3 1.62 ug/m3 119.95 ug/m3 34.44 ug/m3 24.45 C 75.74 % 1,009.65 mbar 3.26 m/s 147.75 Deg 0.41 ug/m3
2021-06-12 13:00 3.76 ug/m3 1.59 ug/m3 118.14 ug/m3 23 ug/m3 25.08 C 76.3 % 1,009.83 mbar 3.63 m/s 108.73 Deg 0.25 ug/m3
2021-06-12 12:00 7.08 ug/m3 1.65 ug/m3 119.48 ug/m3 8.64 ug/m3 25.81 C 66.06 % 1,009.79 mbar 3.89 m/s 140.51 Deg 0.76 ug/m3
2021-06-12 11:00 12.99 ug/m3 1.72 ug/m3 112.03 ug/m3 6.77 ug/m3 27.07 C 47.54 % 1,009.80 mbar 2.12 m/s 243.55 Deg 1.72 ug/m3
2021-06-12 10:00 15.01 ug/m3 1.46 ug/m3 105.52 ug/m3 10.27 ug/m3 26.02 C 55.23 % 1,009.85 mbar 2.34 m/s 260.98 Deg 1.87 ug/m3
2021-06-12 09:00 16.26 ug/m3 1.62 ug/m3 99.44 ug/m3 18.67 ug/m3 24.75 C 64.56 % 1,009.73 mbar 2.16 m/s 287.35 Deg 2.73 ug/m3
2021-06-12 08:00 16.64 ug/m3 1.27 ug/m3 94.84 ug/m3 30.84 ug/m3 22.84 C 79.91 % 1,009.77 mbar 2.43 m/s 297.85 Deg 2.33 ug/m3
2021-06-12 07:00 19.27 ug/m3 1.39 ug/m3 82.89 ug/m3 39.69 ug/m3 21.37 C 88.16 % 1,009.60 mbar 2.69 m/s 310.45 Deg 2.07 ug/m3
2021-06-12 06:00 26.18 ug/m3 1.31 ug/m3 62.28 ug/m3 29.11 ug/m3 20.16 C 93.4 % 1,009.61 mbar 1.89 m/s 294.77 Deg 1.58 ug/m3
2021-06-12 05:00 12.95 ug/m3 1.46 ug/m3 73.62 ug/m3 18.83 ug/m3 20.13 C 91.68 % 1,009.15 mbar 1.29 m/s 271.9 Deg 0.34 ug/m3
2021-06-12 04:00 4.26 ug/m3 1.2 ug/m3 87.57 ug/m3 20.77 ug/m3 20.17 C 91.69 % 1,008.90 mbar 1.4 m/s 307.63 Deg 0.04 ug/m3
2021-06-12 03:00 3.03 ug/m3 1.48 ug/m3 98.85 ug/m3 23.77 ug/m3 20.71 C 86.84 % 1,008.89 mbar 1.82 m/s 265.08 Deg 0.07 ug/m3
2021-06-12 02:00 12.63 ug/m3 1.55 ug/m3 76.93 ug/m3 24.81 ug/m3 21 C 86.39 % 1,009.12 mbar 1.13 m/s 271.65 Deg -0.07 ug/m3
2021-06-12 01:00 18.74 ug/m3 1.57 ug/m3 70.19 ug/m3 26.07 ug/m3 21.24 C 87.4 % 1,009.27 mbar 1.14 m/s 246.42 Deg 0 ug/m3
2021-06-12 00:00 19.26 ug/m3 1.79 ug/m3 73.6 ug/m3 33.62 ug/m3 21.54 C 86.63 % 1,009.36 mbar 0.64 m/s 249.37 Deg 0.16 ug/m3
2021-06-11 23:00 18.86 ug/m3 1.81 ug/m3 87.44 ug/m3 34.67 ug/m3 22 C 82.39 % 1,009.38 mbar 1.02 m/s 203.8 Deg 0.46 ug/m3
2021-06-11 22:00 18 ug/m3 1.48 ug/m3 93.02 ug/m3 31.07 ug/m3 22.3 C 79.25 % 1,009.25 mbar 1.01 m/s 263.78 Deg 0.09 ug/m3
2021-06-11 21:00 31.74 ug/m3 1.61 ug/m3 83.99 ug/m3 32.42 ug/m3 22.36 C 83.83 % 1,008.57 mbar 1.15 m/s 194.85 Deg 0.2 ug/m3
2021-06-11 20:00 9.93 ug/m3 1.65 ug/m3 111.76 ug/m3 36.71 ug/m3 22.55 C 84.29 % 1,008.09 mbar 1.99 m/s 194.03 Deg 0.49 ug/m3
2021-06-11 19:00 10.72 ug/m3 1.58 ug/m3 130.74 ug/m3 27.95 ug/m3 23.52 C 78.04 % 1,007.58 mbar 2.62 m/s 79.47 Deg 0.42 ug/m3
2021-06-11 18:00 8.81 ug/m3 1.62 ug/m3 126.22 ug/m3 17.64 ug/m3 24.4 C 67.88 % 1,007.28 mbar 2.63 m/s 63.03 Deg 0.64 ug/m3
2021-06-11 17:00 9.49 ug/m3 1.66 ug/m3 121.94 ug/m3 21.69 ug/m3 25.6 C 56.74 % 1,007.25 mbar 2.08 m/s 84.38 Deg 3.79 ug/m3
2021-06-11 16:00 7.63 ug/m3 1.57 ug/m3 129.27 ug/m3 17.54 ug/m3 25.29 C 63.6 % 1,007.39 mbar 2.93 m/s 170.27 Deg 0.95 ug/m3
2021-06-11 15:00 20.02 ug/m3 1.76 ug/m3 112.08 ug/m3 19.73 ug/m3 24.74 C 67.25 % 1,007.77 mbar 3.28 m/s 159.25 Deg 2.85 ug/m3
2021-06-11 14:00 5.72 ug/m3 1.69 ug/m3 124.02 ug/m3 13.67 ug/m3 24.35 C 69.39 % 1,008.12 mbar 3.27 m/s 158.87 Deg 0.49 ug/m3
2021-06-11 13:00 4.92 ug/m3 1.73 ug/m3 122.55 ug/m3 16.45 ug/m3 25.03 C 62.21 % 1,008.28 mbar 2.68 m/s 93.27 Deg 0.95 ug/m3
2021-06-11 12:00 8.71 ug/m3 1.73 ug/m3 110.01 ug/m3 13.65 ug/m3 25.51 C 57.44 % 1,008.32 mbar 2.32 m/s 100.78 Deg 2.57 ug/m3
2021-06-11 11:00 8.88 ug/m3 1.67 ug/m3 104.76 ug/m3 18.32 ug/m3 25.43 C 52.97 % 1,008.22 mbar 2 m/s 89.92 Deg 1.51 ug/m3
2021-06-11 10:00 14.31 ug/m3 1.85 ug/m3 94.05 ug/m3 27.78 ug/m3 24.49 C 70.1 % 1,007.93 mbar 2.03 m/s 185.8 Deg 2.21 ug/m3
2021-06-11 09:00 19.64 ug/m3 1.68 ug/m3 86.85 ug/m3 27.47 ug/m3 24.22 C 64.32 % 1,007.75 mbar 1.78 m/s 209.27 Deg 3.25 ug/m3
2021-06-11 08:00 30.39 ug/m3 1.77 ug/m3 74.52 ug/m3 29.45 ug/m3 23.32 C 67.01 % 1,007.72 mbar 1.99 m/s 137.65 Deg 7.7 ug/m3
2021-06-11 07:00 49.51 ug/m3 1.93 ug/m3 46.57 ug/m3 32.44 ug/m3 22.3 C 74.78 % 1,007.47 mbar 1.15 m/s 297.07 Deg 10 ug/m3
2021-06-11 06:00 44.8 ug/m3 1.72 ug/m3 40.78 ug/m3 23.96 ug/m3 20.79 C 79.81 % 1,007.32 mbar 1.3 m/s 304.27 Deg 6.18 ug/m3
2021-06-11 05:00 15.89 ug/m3 1.74 ug/m3 61.55 ug/m3 17.02 ug/m3 20.25 C 84.21 % 1,007.14 mbar 1.45 m/s 302.32 Deg 1.05 ug/m3
2021-06-11 04:00 5.56 ug/m3 1.67 ug/m3 77.22 ug/m3 14.44 ug/m3 20.66 C 79.79 % 1,006.89 mbar 1.63 m/s 312.88 Deg 0.29 ug/m3
2021-06-11 03:00 5.73 ug/m3 1.8 ug/m3 79.51 ug/m3 8.57 ug/m3 21.07 C 77.77 % 1,007.02 mbar 1.44 m/s 308.27 Deg -0.04 ug/m3
2021-06-11 02:00 8.09 ug/m3 1.93 ug/m3 76.73 ug/m3 6.63 ug/m3 21.37 C 71.67 % 1,007.34 mbar 1.41 m/s 289.87 Deg 0.34 ug/m3
2021-06-11 01:00 11.4 ug/m3 1.73 ug/m3 73.91 ug/m3 8.05 ug/m3 21.85 C 70.04 % 1,007.53 mbar 1 m/s 305.63 Deg 0.04 ug/m3
2021-06-11 00:00 18.34 ug/m3 1.53 ug/m3 68.75 ug/m3 8.74 ug/m3 22.1 C 72.88 % 1,007.63 mbar 1.03 m/s 306.27 Deg 0.3 ug/m3
2021-06-10 23:00 33.61 ug/m3 1.47 ug/m3 63.8 ug/m3 12.75 ug/m3 22.4 C 70.97 % 1,007.88 mbar 0.99 m/s 308.4 Deg 0.47 ug/m3
2021-06-10 22:00 69.12 ug/m3 1.72 ug/m3 28.18 ug/m3 17.93 ug/m3 22.43 C 73.91 % 1,007.98 mbar 0.98 m/s 274.05 Deg 2.38 ug/m3
2021-06-10 21:00 20.85 ug/m3 1.8 ug/m3 83.17 ug/m3 19.81 ug/m3 22 C 82.15 % 1,008.04 mbar 2.08 m/s 240.03 Deg 0.1 ug/m3
2021-06-10 20:00 12.29 ug/m3 1.76 ug/m3 100.01 ug/m3 21.12 ug/m3 22.04 C 82.05 % 1,007.58 mbar 2.81 m/s 156.88 Deg 0.61 ug/m3
2021-06-10 19:00 11.42 ug/m3 1.65 ug/m3 98.49 ug/m3 32.91 ug/m3 22.55 C 77.79 % 1,006.89 mbar 3 m/s 123.83 Deg 0.83 ug/m3
2021-06-10 18:00 9.44 ug/m3 1.88 ug/m3 96.62 ug/m3 31.53 ug/m3 23.01 C 75 % 1,006.76 mbar 3.57 m/s 99.57 Deg 1.37 ug/m3
2021-06-10 17:00 8.63 ug/m3 1.93 ug/m3 103.54 ug/m3 13.3 ug/m3 24.19 C 65.72 % 1,006.92 mbar 3.18 m/s 103.12 Deg 1.31 ug/m3
2021-06-10 16:00 3.72 ug/m3 1.85 ug/m3 106.19 ug/m3 6.13 ug/m3 24.75 C 61.42 % 1,006.99 mbar 2.33 m/s 80.68 Deg 0.49 ug/m3
2021-06-10 15:00 2.94 ug/m3 1.81 ug/m3 108.35 ug/m3 6.07 ug/m3 24.97 C 59.93 % 1,007.12 mbar 2.47 m/s 106.87 Deg 0.22 ug/m3
2021-06-10 14:00 1.44 ug/m3 1.87 ug/m3 105.73 ug/m3 6.35 ug/m3 25.12 C 57.21 % 1,007.53 mbar 2.96 m/s 102.43 Deg -0 ug/m3
2021-06-10 13:00 3.44 ug/m3 1.77 ug/m3 105.05 ug/m3 7.73 ug/m3 24.71 C 61.18 % 1,007.66 mbar 3.43 m/s 143.13 Deg 0.15 ug/m3
2021-06-10 12:00 5.15 ug/m3 1.74 ug/m3 103.38 ug/m3 9.81 ug/m3 25 C 56.48 % 1,007.74 mbar 1.89 m/s 108.15 Deg 1.15 ug/m3
2021-06-10 11:00 8.42 ug/m3 1.73 ug/m3 97.68 ug/m3 14.75 ug/m3 24.73 C 60.98 % 1,007.70 mbar 2.01 m/s 121.03 Deg 2.65 ug/m3
2021-06-10 10:00 14.24 ug/m3 1.65 ug/m3 85.58 ug/m3 12.42 ug/m3 24 C 68.24 % 1,007.33 mbar 2.4 m/s 140.9 Deg 3.33 ug/m3
2021-06-10 09:00 24.58 ug/m3 1.5 ug/m3 71.86 ug/m3 15.38 ug/m3 23.46 C 71.72 % 1,007.07 mbar 1.68 m/s 244.23 Deg 6.35 ug/m3
2021-06-10 08:00 25.36 ug/m3 1.51 ug/m3 65.83 ug/m3 17.91 ug/m3 22.24 C 80.09 % 1,006.94 mbar 2.59 m/s 187.3 Deg 6.44 ug/m3
2021-06-10 07:00 15.4 ug/m3 1.59 ug/m3 74.69 ug/m3 12.3 ug/m3 21.39 C 85.89 % 1,006.50 mbar 3.3 m/s 183.95 Deg 3.03 ug/m3
2021-06-10 06:00 16.22 ug/m3 1.6 ug/m3 68.67 ug/m3 8.04 ug/m3 20.73 C 89.5 % 1,006.17 mbar 3.42 m/s 247.72 Deg 2.31 ug/m3
2021-06-10 05:00 25.06 ug/m3 1.68 ug/m3 56.78 ug/m3 11.38 ug/m3 20.46 C 91.91 % 1,005.88 mbar 3.94 m/s 270.2 Deg 0.81 ug/m3
2021-06-10 04:00 15.02 ug/m3 1.49 ug/m3 65.99 ug/m3 18.91 ug/m3 20.57 C 92.19 % 1,005.84 mbar 3.61 m/s 276.6 Deg 0.14 ug/m3
2021-06-10 03:00 15 ug/m3 1.57 ug/m3 64.89 ug/m3 12.38 ug/m3 20.86 C 91.25 % 1,006.06 mbar 3.47 m/s 297.43 Deg -0.01 ug/m3
2021-06-10 02:00 5.6 ug/m3 1.41 ug/m3 77.42 ug/m3 12.5 ug/m3 21.11 C 87.61 % 1,006.37 mbar 3.12 m/s 297.85 Deg 0.1 ug/m3
2021-06-10 01:00 3.76 ug/m3 1.4 ug/m3 75.53 ug/m3 20.39 ug/m3 20.98 C 87.76 % 1,006.68 mbar 2.79 m/s 299.73 Deg 0.55 ug/m3
2021-06-10 00:00 1.73 ug/m3 1.69 ug/m3 78.31 ug/m3 32.76 ug/m3 20.74 C 91.74 % 1,007.02 mbar 2.62 m/s 319.7 Deg 0.06 ug/m3
2021-06-09 23:00 4.71 ug/m3 1.52 ug/m3 77.43 ug/m3 32.03 ug/m3 20.79 C 90.78 % 1,007.34 mbar 3.34 m/s 307.43 Deg 0.05 ug/m3
2021-06-09 22:00 3.97 ug/m3 1.64 ug/m3 84.27 ug/m3 20.97 ug/m3 21.17 C 82.53 % 1,007.75 mbar 3.05 m/s 290.7 Deg 0.28 ug/m3
2021-06-09 21:00 7.3 ug/m3 1.6 ug/m3 82.73 ug/m3 18.71 ug/m3 21.3 C 78.64 % 1,007.56 mbar 2.55 m/s 308.03 Deg 0.49 ug/m3
2021-06-09 20:00 10.09 ug/m3 1.55 ug/m3 82.26 ug/m3 23.2 ug/m3 21.73 C 77.59 % 1,007.47 mbar 2.52 m/s 304.12 Deg 0.62 ug/m3
2021-06-09 19:00 11.91 ug/m3 1.74 ug/m3 83.63 ug/m3 29.75 ug/m3 22.69 C 73.93 % 1,007.30 mbar 2.57 m/s 312.43 Deg 1.22 ug/m3
2021-06-09 18:00 9.6 ug/m3 1.62 ug/m3 84.5 ug/m3 38.28 ug/m3 23.45 C 69.8 % 1,006.88 mbar 3.32 m/s 294.05 Deg 1.45 ug/m3
2021-06-09 17:00 7.85 ug/m3 1.84 ug/m3 86.39 ug/m3 26.92 ug/m3 23.86 C 67.56 % 1,006.81 mbar 4.27 m/s 308.1 Deg 1.59 ug/m3
2021-06-09 16:00 7.56 ug/m3 1.6 ug/m3 88.67 ug/m3 15.9 ug/m3 24.56 C 61.37 % 1,006.94 mbar 3.98 m/s 307.97 Deg 1.8 ug/m3
2021-06-09 15:00 6.63 ug/m3 1.72 ug/m3 86.2 ug/m3 17.1 ug/m3 25 C 57.07 % 1,007.37 mbar 3.69 m/s 291.73 Deg 1.87 ug/m3
2021-06-09 14:00 8.1 ug/m3 1.81 ug/m3 84.51 ug/m3 27.73 ug/m3 24.99 C 59.31 % 1,007.87 mbar 3.47 m/s 279.92 Deg 2.49 ug/m3
2021-06-09 13:00 9.74 ug/m3 1.65 ug/m3 87.9 ug/m3 21.98 ug/m3 25.01 C 61.46 % 1,008.14 mbar 3.42 m/s 288.55 Deg 2.31 ug/m3
2021-06-09 12:00 9.79 ug/m3 1.93 ug/m3 86.96 ug/m3 8.18 ug/m3 24.6 C 59.16 % 1,008.20 mbar 3.65 m/s 181.57 Deg 2.13 ug/m3
2021-06-09 11:00 12.42 ug/m3 1.89 ug/m3 81.91 ug/m3 7.12 ug/m3 24.09 C 58.32 % 1,008.20 mbar 4.05 m/s 156.57 Deg 3.63 ug/m3
2021-06-09 10:00 13.9 ug/m3 1.67 ug/m3 82.8 ug/m3 11.61 ug/m3 23.33 C 65.39 % 1,007.98 mbar 4.15 m/s 199.33 Deg 3.7 ug/m3
2021-06-09 09:00 12.7 ug/m3 1.6 ug/m3 82.7 ug/m3 18.54 ug/m3 22.47 C 73.1 % 1,008.04 mbar 3.54 m/s 268.87 Deg 3.67 ug/m3
2021-06-09 08:00 16.5 ug/m3 1.48 ug/m3 75.04 ug/m3 16.78 ug/m3 21.57 C 79.6 % 1,008.08 mbar 3 m/s 290.38 Deg 3.91 ug/m3
2021-06-09 07:00 19.59 ug/m3 1.63 ug/m3 66.22 ug/m3 26.24 ug/m3 20.89 C 85.66 % 1,008.19 mbar 2.79 m/s 300.68 Deg 3.67 ug/m3
2021-06-09 06:00 26.81 ug/m3 1.43 ug/m3 45.4 ug/m3 21.86 ug/m3 20.02 C 89.5 % 1,007.82 mbar 1.65 m/s 294.5 Deg 3.43 ug/m3
2021-06-09 05:00 17.13 ug/m3 1.51 ug/m3 54.28 ug/m3 23.6 ug/m3 19.96 C 87.23 % 1,007.37 mbar 2.06 m/s 311.15 Deg 0.76 ug/m3
2021-06-09 04:00 6.26 ug/m3 1.56 ug/m3 66.85 ug/m3 16.89 ug/m3 20.12 C 86.9 % 1,007.31 mbar 2.46 m/s 320.63 Deg 0.22 ug/m3
2021-06-09 03:00 7.61 ug/m3 1.57 ug/m3 68.04 ug/m3 12.35 ug/m3 20.4 C 84.96 % 1,007.28 mbar 2.61 m/s 305.08 Deg -0.16 ug/m3
2021-06-09 02:00 4.43 ug/m3 1.67 ug/m3 75.18 ug/m3 12.32 ug/m3 20.61 C 84.18 % 1,007.36 mbar 2.78 m/s 315.15 Deg 0.07 ug/m3
2021-06-09 01:00 5.71 ug/m3 1.43 ug/m3 77.42 ug/m3 17.74 ug/m3 20.76 C 85.37 % 1,007.58 mbar 3.3 m/s 309.08 Deg -0.03 ug/m3
2021-06-09 00:00 7.06 ug/m3 1.62 ug/m3 75.32 ug/m3 27.21 ug/m3 20.8 C 84.12 % 1,008.04 mbar 3.22 m/s 269.37 Deg 0.01 ug/m3
2021-06-08 23:00 6.15 ug/m3 1.61 ug/m3 75.13 ug/m3 23.74 ug/m3 21.01 C 83.98 % 1,008.50 mbar 3.27 m/s 289.4 Deg 0.17 ug/m3
2021-06-08 22:00 5.61 ug/m3 1.39 ug/m3 79.11 ug/m3 25.38 ug/m3 21.4 C 80.62 % 1,008.48 mbar 3.33 m/s 307.75 Deg 0.09 ug/m3
2021-06-08 21:00 5.51 ug/m3 1.59 ug/m3 84.87 ug/m3 31.54 ug/m3 21.3 C 83.07 % 1,008.37 mbar 3.04 m/s 312.03 Deg 0.42 ug/m3
2021-06-08 20:00 7.89 ug/m3 1.66 ug/m3 84.91 ug/m3 27.51 ug/m3 21.72 C 79.73 % 1,008.13 mbar 2.89 m/s 282.35 Deg 0.9 ug/m3
2021-06-08 19:00 10.83 ug/m3 1.65 ug/m3 85.41 ug/m3 34.26 ug/m3 23.14 C 68.18 % 1,008.01 mbar 2.96 m/s 310.35 Deg 1.76 ug/m3
2021-06-08 18:00 9.45 ug/m3 1.61 ug/m3 91.7 ug/m3 23.63 ug/m3 23.53 C 69.48 % 1,007.87 mbar 3.26 m/s 304.03 Deg 1.18 ug/m3
2021-06-08 17:00 9.04 ug/m3 1.71 ug/m3 92.64 ug/m3 23.7 ug/m3 24.1 C 64.93 % 1,007.83 mbar 3.59 m/s 302.6 Deg 1.71 ug/m3
2021-06-08 16:00 7.87 ug/m3 1.61 ug/m3 90.47 ug/m3 18.86 ug/m3 24.62 C 59.22 % 1,007.90 mbar 3.73 m/s 292.68 Deg 2.42 ug/m3
2021-06-08 15:00 8.24 ug/m3 1.62 ug/m3 93.66 ug/m3 21.35 ug/m3 25.08 C 55.66 % 1,008.27 mbar 3.62 m/s 304.18 Deg 1.67 ug/m3
2021-06-08 14:00 8.53 ug/m3 1.67 ug/m3 95.96 ug/m3 19.6 ug/m3 25.15 C 58.82 % 1,008.71 mbar 4.04 m/s 305.58 Deg 1.71 ug/m3
2021-06-08 13:00 12.44 ug/m3 1.68 ug/m3 92.71 ug/m3 16.15 ug/m3 25.5 C 60.49 % 1,009.03 mbar 3.65 m/s 259.2 Deg 2.87 ug/m3
2021-06-08 12:00 11.9 ug/m3 1.64 ug/m3 89.78 ug/m3 21.61 ug/m3 24.77 C 60.58 % 1,009.34 mbar 4.21 m/s 173.5 Deg 3.28 ug/m3
2021-06-08 11:00 13.58 ug/m3 1.9 ug/m3 85.43 ug/m3 36.28 ug/m3 24.48 C 64.15 % 1,009.53 mbar 3.79 m/s 172.78 Deg 3.15 ug/m3
2021-06-08 10:00 18.17 ug/m3 1.65 ug/m3 78.72 ug/m3 26.9 ug/m3 24.3 C 69.29 % 1,009.50 mbar 2.89 m/s 151.03 Deg 5.2 ug/m3
2021-06-08 09:00 23.24 ug/m3 1.88 ug/m3 68.99 ug/m3 19.22 ug/m3 24.11 C 66.12 % 1,009.51 mbar 2.12 m/s 223.22 Deg 5.6 ug/m3
2021-06-08 08:00 25.93 ug/m3 1.42 ug/m3 62.68 ug/m3 23.05 ug/m3 22.9 C 70.16 % 1,009.67 mbar 2.37 m/s 258.32 Deg 7.05 ug/m3
2021-06-08 07:00 28.04 ug/m3 1.43 ug/m3 52.68 ug/m3 23.08 ug/m3 21.41 C 83.14 % 1,009.54 mbar 2.28 m/s 298.4 Deg 6.75 ug/m3
2021-06-08 06:00 23.88 ug/m3 1.48 ug/m3 50.08 ug/m3 26.3 ug/m3 20.49 C 90.11 % 1,009.11 mbar 2.2 m/s 307.72 Deg 3.75 ug/m3
2021-06-08 05:00 13.31 ug/m3 1.49 ug/m3 55.66 ug/m3 22.05 ug/m3 20.14 C 93.89 % 1,008.84 mbar 2.02 m/s 303.32 Deg 0.74 ug/m3
2021-06-08 04:00 7.63 ug/m3 1.44 ug/m3 64.33 ug/m3 17.62 ug/m3 20.58 C 94.09 % 1,008.42 mbar 2.38 m/s 314.55 Deg -0.04 ug/m3
2021-06-08 03:00 5.42 ug/m3 1.6 ug/m3 69.56 ug/m3 13.6 ug/m3 20.84 C 91.45 % 1,008.36 mbar 2.76 m/s 288.37 Deg 0.14 ug/m3
2021-06-08 02:00 8.9 ug/m3 1.51 ug/m3 69.18 ug/m3 15.57 ug/m3 21.12 C 88.48 % 1,008.42 mbar 3.19 m/s 289.9 Deg 0.12 ug/m3
2021-06-08 01:00 5.94 ug/m3 1.38 ug/m3 73.24 ug/m3 17.28 ug/m3 21.4 C 85.39 % 1,008.44 mbar 3.78 m/s 284.73 Deg -0.03 ug/m3
2021-06-08 00:00 5.35 ug/m3 1.53 ug/m3 74.9 ug/m3 20.8 ug/m3 21.39 C 87.11 % 1,008.70 mbar 3.59 m/s 302.05 Deg 0.09 ug/m3
2021-06-07 23:00 3.74 ug/m3 1.3 ug/m3 78.57 ug/m3 35.2 ug/m3 21.24 C 90.28 % 1,008.82 mbar 3.23 m/s 306.05 Deg 0.07 ug/m3
2021-06-07 22:00 3.97 ug/m3 1.51 ug/m3 80.64 ug/m3 27.55 ug/m3 21.25 C 90.68 % 1,008.59 mbar 3.45 m/s 296.63 Deg 0.05 ug/m3
2021-06-07 21:00 4.44 ug/m3 1.44 ug/m3 81.05 ug/m3 28.46 ug/m3 21.47 C 89.23 % 1,008.29 mbar 4.08 m/s 309.73 Deg 0.4 ug/m3
2021-06-07 20:00 5.62 ug/m3 1.57 ug/m3 80.18 ug/m3 28.66 ug/m3 21.91 C 86.81 % 1,007.61 mbar 3.75 m/s 308.3 Deg 0.56 ug/m3
2021-06-07 19:00 5.45 ug/m3 1.59 ug/m3 81.95 ug/m3 31.08 ug/m3 23.12 C 81.56 % 1,007.24 mbar 3.46 m/s 296.02 Deg 0.62 ug/m3
2021-06-07 18:00 6.13 ug/m3 1.44 ug/m3 87.58 ug/m3 29.07 ug/m3 24.76 C 73.48 % 1,006.85 mbar 3.61 m/s 302.83 Deg 0.77 ug/m3
2021-06-07 17:00 9.74 ug/m3 1.69 ug/m3 89.87 ug/m3 16.2 ug/m3 25.84 C 68.19 % 1,006.72 mbar 3.06 m/s 305.03 Deg 1.33 ug/m3
2021-06-07 16:00 10.34 ug/m3 1.54 ug/m3 92.24 ug/m3 13.24 ug/m3 25.21 C 70.47 % 1,007.24 mbar 3.59 m/s 250.4 Deg 1.66 ug/m3
2021-06-07 15:00 7.37 ug/m3 1.6 ug/m3 103.69 ug/m3 18.38 ug/m3 24.9 C 65.87 % 1,007.85 mbar 3.94 m/s 195.77 Deg 1.1 ug/m3
2021-06-07 14:00 5.84 ug/m3 1.58 ug/m3 113.6 ug/m3 16.42 ug/m3 23.81 C 80 % 1,008.26 mbar 4.37 m/s 215.3 Deg 0.81 ug/m3
2021-06-07 13:00 4.95 ug/m3 1.39 ug/m3 104.87 ug/m3 8.27 ug/m3 24.02 C 79.07 % 1,008.65 mbar 4.43 m/s 107.62 Deg 0.88 ug/m3
2021-06-07 12:00 4.52 ug/m3 1.3 ug/m3 104.23 ug/m3 5.49 ug/m3 24.7 C 72.77 % 1,008.80 mbar 3.21 m/s 132.83 Deg 0.65 ug/m3
2021-06-07 11:00 4.46 ug/m3 1.53 ug/m3 100.5 ug/m3 7.35 ug/m3 23.69 C 78.82 % 1,008.98 mbar 4.79 m/s 157.87 Deg 1.1 ug/m3
2021-06-07 10:00 0.66 ug/m3 1.35 ug/m3 101.34 ug/m3 8.85 ug/m3 23.84 C 76.9 % 1,009.12 mbar 4.41 m/s 160.27 Deg 0.23 ug/m3
2021-06-07 09:00 2.58 ug/m3 1.37 ug/m3 97.44 ug/m3 9.66 ug/m3 23.71 C 76.68 % 1,009.08 mbar 4.36 m/s 156.5 Deg 0.44 ug/m3
2021-06-07 08:00 1.13 ug/m3 1.3 ug/m3 89.68 ug/m3 16.06 ug/m3 22.68 C 87.1 % 1,008.67 mbar 4.46 m/s 133.6 Deg 0.37 ug/m3
2021-06-07 07:00 1.18 ug/m3 1.31 ug/m3 78.48 ug/m3 25.47 ug/m3 21.48 C 97.66 % 1,008.80 mbar 2.94 m/s 127 Deg 0.43 ug/m3
2021-06-07 06:00 6.22 ug/m3 1.5 ug/m3 66.32 ug/m3 15.4 ug/m3 20.56 C 99.9 % 1,008.76 mbar 1.35 m/s 102 Deg 0.24 ug/m3
2021-06-07 05:00 5.61 ug/m3 1.15 ug/m3 69.11 ug/m3 11.27 ug/m3 20.55 C 100 % 1,008.99 mbar 0.88 m/s 75.03 Deg -0.05 ug/m3
2021-06-07 04:00 1.84 ug/m3 1.35 ug/m3 73.33 ug/m3 15 ug/m3 20.56 C 100 % 1,008.93 mbar 0.99 m/s 72.37 Deg 0.22 ug/m3
2021-06-07 03:00 1.94 ug/m3 1.51 ug/m3 75.87 ug/m3 22.15 ug/m3 20.59 C 99.63 % 1,009.00 mbar 1.02 m/s 76.97 Deg -0.06 ug/m3
2021-06-07 02:00 0.83 ug/m3 1.45 ug/m3 75.86 ug/m3 16.93 ug/m3 20.51 C 98.73 % 1,008.57 mbar 2.09 m/s 126.82 Deg 0.01 ug/m3
2021-06-07 01:00 1.69 ug/m3 1.31 ug/m3 75.12 ug/m3 21.3 ug/m3 20.52 C 98.99 % 1,009.02 mbar 1.96 m/s 101.5 Deg -0.03 ug/m3
2021-06-07 00:00 4.46 ug/m3 1.53 ug/m3 71.47 ug/m3 13.06 ug/m3 20.57 C 98.52 % 1,009.89 mbar 1.76 m/s 108.95 Deg 0.43 ug/m3
2021-06-06 23:00 3.35 ug/m3 1.27 ug/m3 74.51 ug/m3 15.79 ug/m3 20.88 C 96.88 % 1,010.42 mbar 1.85 m/s 101.2 Deg -0.19 ug/m3
2021-06-06 22:00 1.48 ug/m3 1.36 ug/m3 81.92 ug/m3 15.41 ug/m3 21.06 C 92.37 % 1,010.75 mbar 1.46 m/s 95.12 Deg 0.15 ug/m3
2021-06-06 21:00 0.99 ug/m3 1.34 ug/m3 84.59 ug/m3 11.4 ug/m3 21.41 C 89.23 % 1,010.05 mbar 2.65 m/s 143.45 Deg 0.02 ug/m3
2021-06-06 20:00 2.64 ug/m3 1.34 ug/m3 85.26 ug/m3 7.86 ug/m3 21.52 C 90.19 % 1,009.76 mbar 3.33 m/s 161.38 Deg -0.03 ug/m3
2021-06-06 19:00 22.22 ug/m3 1.69 ug/m3 67.36 ug/m3 9.24 ug/m3 22.02 C 86.66 % 1,009.74 mbar 4.24 m/s 173 Deg 1.5 ug/m3
2021-06-06 18:00 5.22 ug/m3 1.51 ug/m3 80.51 ug/m3 14.79 ug/m3 22.37 C 84.85 % 1,009.77 mbar 4.93 m/s 179.27 Deg 0.52 ug/m3
2021-06-06 17:00 0.23 ug/m3 1.5 ug/m3 80.79 ug/m3 10.9 ug/m3 22.57 C 86.76 % 1,009.86 mbar 5.96 m/s 165.5 Deg 0.19 ug/m3
2021-06-06 16:00 1.42 ug/m3 1.55 ug/m3 86.18 ug/m3 4.89 ug/m3 22.78 C 85.07 % 1,010.53 mbar 5.38 m/s 165.15 Deg 0.25 ug/m3
2021-06-06 15:00 2.73 ug/m3 1.61 ug/m3 92.12 ug/m3 5.37 ug/m3 22.92 C 82.98 % 1,011.09 mbar 5.78 m/s 164.27 Deg 0.57 ug/m3
2021-06-06 14:00 3.11 ug/m3 1.74 ug/m3 95.67 ug/m3 6.07 ug/m3 23.19 C 77.97 % 1,011.43 mbar 5.28 m/s 168.83 Deg 0.79 ug/m3
2021-06-06 13:00 1.19 ug/m3 1.63 ug/m3 94.03 ug/m3 6.6 ug/m3 23.27 C 77.37 % 1,012.14 mbar 4.15 m/s 151.05 Deg 0.61 ug/m3
2021-06-06 12:00 1.78 ug/m3 1.69 ug/m3 94.58 ug/m3 5.94 ug/m3 23.06 C 77.23 % 1,012.58 mbar 3.87 m/s 131.72 Deg 0.21 ug/m3
2021-06-06 11:00 5.5 ug/m3 1.63 ug/m3 96.08 ug/m3 7.68 ug/m3 23.4 C 73.8 % 1,012.91 mbar 3.38 m/s 133.17 Deg 0.88 ug/m3
2021-06-06 10:00 4.53 ug/m3 1.69 ug/m3 97.88 ug/m3 9.63 ug/m3 22.78 C 78.4 % 1,012.18 mbar 4.48 m/s 167.22 Deg 0.85 ug/m3
2021-06-06 09:00 7.11 ug/m3 1.69 ug/m3 104.6 ug/m3 13.88 ug/m3 22.3 C 72.9 % 1,012.27 mbar 4.5 m/s 162.85 Deg 0.8 ug/m3
2021-06-06 08:00 10.83 ug/m3 1.68 ug/m3 101.71 ug/m3 21.04 ug/m3 22.37 C 64.39 % 1,012.50 mbar 3.41 m/s 164.72 Deg 0.92 ug/m3
2021-06-06 07:00 11.49 ug/m3 1.84 ug/m3 90.6 ug/m3 35.92 ug/m3 21.53 C 77.77 % 1,012.58 mbar 1.28 m/s 113.38 Deg 1 ug/m3
2021-06-06 06:00 13.35 ug/m3 1.72 ug/m3 77.39 ug/m3 39.2 ug/m3 20.03 C 94.34 % 1,011.97 mbar 0.97 m/s 122.02 Deg 0.29 ug/m3
2021-06-06 05:00 9.95 ug/m3 1.84 ug/m3 72.28 ug/m3 37.2 ug/m3 19.81 C 91.85 % 1,011.77 mbar 1.09 m/s 140.05 Deg 0.18 ug/m3
2021-06-06 04:00 15.72 ug/m3 1.91 ug/m3 66.4 ug/m3 29.13 ug/m3 20.02 C 92.61 % 1,011.76 mbar 0.77 m/s 110.87 Deg 0.09 ug/m3
2021-06-06 03:00 14.02 ug/m3 2.06 ug/m3 73.45 ug/m3 24.8 ug/m3 20.35 C 87.86 % 1,012.29 mbar 0.5 m/s 78.38 Deg 0.13 ug/m3
2021-06-06 02:00 6.69 ug/m3 2.1 ug/m3 91.1 ug/m3 14.84 ug/m3 20.75 C 77.8 % 1,012.97 mbar 0.56 m/s 108.58 Deg -0.07 ug/m3
2021-06-06 01:00 17.49 ug/m3 1.9 ug/m3 80.94 ug/m3 18.31 ug/m3 21.72 C 49.37 % 1,013.43 mbar 0.85 m/s 105.5 Deg 0.2 ug/m3
2021-06-06 00:00 13.96 ug/m3 1.83 ug/m3 101.34 ug/m3 31.67 ug/m3 22.08 C 45.58 % 1,013.67 mbar 0.7 m/s 262.22 Deg 0.21 ug/m3
2021-06-05 23:00 16.17 ug/m3 2.05 ug/m3 97.78 ug/m3 46.27 ug/m3 22.05 C 49.46 % 1,014.12 mbar 1.05 m/s 252.08 Deg 0.66 ug/m3
2021-06-05 22:00 22.5 ug/m3 2.03 ug/m3 90.76 ug/m3 38.51 ug/m3 22.49 C 49.56 % 1,014.58 mbar 0.98 m/s 266.07 Deg 0.05 ug/m3
2021-06-05 21:00 18.12 ug/m3 1.98 ug/m3 89.9 ug/m3 38.6 ug/m3 22.44 C 51.22 % 1,014.17 mbar 1.14 m/s 259.1 Deg -0.14 ug/m3
2021-06-05 20:00 14.48 ug/m3 1.83 ug/m3 88.5 ug/m3 30.29 ug/m3 22.95 C 49.83 % 1,013.93 mbar 1.2 m/s 232.05 Deg 0.2 ug/m3
2021-06-05 19:00 7.64 ug/m3 1.92 ug/m3 110.2 ug/m3 27.01 ug/m3 24.23 C 40.24 % 1,013.81 mbar 1.32 m/s 224.83 Deg 0.03 ug/m3
2021-06-05 18:00 6.16 ug/m3 2.1 ug/m3 114.87 ug/m3 27.63 ug/m3 24.63 C 40.55 % 1,013.56 mbar 1.78 m/s 233.33 Deg 0.38 ug/m3
2021-06-05 17:00 2.56 ug/m3 2.03 ug/m3 118.07 ug/m3 32.09 ug/m3 25.05 C 39.44 % 1,013.71 mbar 3.28 m/s 214.88 Deg 0.61 ug/m3
2021-06-05 16:00 2.78 ug/m3 1.9 ug/m3 118.13 ug/m3 23.4 ug/m3 25.55 C 38.64 % 1,014.15 mbar 3.39 m/s 207.27 Deg 0.47 ug/m3
2021-06-05 15:00 4.49 ug/m3 2.03 ug/m3 115.22 ug/m3 13.2 ug/m3 26.26 C 36.46 % 1,014.47 mbar 3.28 m/s 186.57 Deg 0.48 ug/m3
2021-06-05 14:00 2.82 ug/m3 1.9 ug/m3 117.65 ug/m3 10.67 ug/m3 26.26 C 36.19 % 1,014.96 mbar 3.29 m/s 206.38 Deg -0.01 ug/m3
2021-06-05 13:00 3.45 ug/m3 1.8 ug/m3 116.43 ug/m3 15.11 ug/m3 26.33 C 39.94 % 1,015.27 mbar 3.45 m/s 204.33 Deg 0.23 ug/m3
2021-06-05 12:00 5.1 ug/m3 1.9 ug/m3 121.32 ug/m3 26.44 ug/m3 26.95 C 37.09 % 1,015.87 mbar 2.83 m/s 175.48 Deg 0.45 ug/m3
2021-06-05 11:00 11.94 ug/m3 1.84 ug/m3 118.22 ug/m3 23.23 ug/m3 26.2 C 38.46 % 1,016.25 mbar 2.83 m/s 141.98 Deg 1.19 ug/m3
2021-06-05 10:00 32.99 ug/m3 1.64 ug/m3 91.06 ug/m3 12.36 ug/m3 26.19 C 39.82 % 1,016.07 mbar 2.19 m/s 159.8 Deg 4.62 ug/m3
2021-06-05 09:00 24.44 ug/m3 1.88 ug/m3 93.14 ug/m3 14.23 ug/m3 25.67 C 32.54 % 1,016.19 mbar 0.89 m/s 137.1 Deg 2.72 ug/m3
2021-06-05 08:00 54.96 ug/m3 1.89 ug/m3 53.33 ug/m3 25.92 ug/m3 23.29 C 52.32 % 1,016.55 mbar 1.25 m/s 164.5 Deg 11.88 ug/m3
2021-06-05 07:00 58.3 ug/m3 1.89 ug/m3 30.25 ug/m3 29.93 ug/m3 21.17 C 76.45 % 1,016.35 mbar 1.25 m/s 320.5 Deg 12.66 ug/m3
2021-06-05 06:00 41.39 ug/m3 1.81 ug/m3 41.77 ug/m3 33.7 ug/m3 20.26 C 87.27 % 1,016.05 mbar 1.3 m/s 285.52 Deg 3.97 ug/m3
2021-06-05 05:00 27.41 ug/m3 1.86 ug/m3 47.72 ug/m3 22.85 ug/m3 19.79 C 93.13 % 1,016.12 mbar 1.55 m/s 288.33 Deg 0.86 ug/m3
2021-06-05 04:00 24.19 ug/m3 1.83 ug/m3 53.26 ug/m3 17.87 ug/m3 20.03 C 85.83 % 1,015.91 mbar 2.12 m/s 227.93 Deg 0 ug/m3
2021-06-05 03:00 22.27 ug/m3 1.6 ug/m3 40.19 ug/m3 10.6 ug/m3 20.09 C 65.48 % 1,016.07 mbar 1.42 m/s 320.63 Deg 0.03 ug/m3
2021-06-05 02:00 34.22 ug/m3 1.9 ug/m3 32.42 ug/m3 9.29 ug/m3 20.39 C 68.87 % 1,015.95 mbar 1.22 m/s 326.5 Deg -0.01 ug/m3
2021-06-05 01:00 28.67 ug/m3 1.73 ug/m3 45.64 ug/m3 15.81 ug/m3 20.95 C 74.97 % 1,016.34 mbar 1 m/s 180.52 Deg 0.08 ug/m3
2021-06-05 00:00 13.33 ug/m3 1.67 ug/m3 67.19 ug/m3 10.92 ug/m3 21 C 78.43 % 1,017.00 mbar 0.87 m/s 165.75 Deg 0.98 ug/m3
2021-06-04 23:00 4.76 ug/m3 1.61 ug/m3 81.7 ug/m3 12.2 ug/m3 20.74 C 83.75 % 1,017.47 mbar 0.57 m/s 64.52 Deg 0.2 ug/m3
2021-06-04 22:00 2.13 ug/m3 1.64 ug/m3 80.95 ug/m3 19.35 ug/m3 20.23 C 89.94 % 1,017.11 mbar 0.3 m/s 200.82 Deg 0.29 ug/m3
2021-06-04 21:00 1.17 ug/m3 1.84 ug/m3 87.33 ug/m3 13.73 ug/m3 20.63 C 90.1 % 1,016.52 mbar 0.74 m/s 129.9 Deg 0.27 ug/m3
2021-06-04 20:00 10.17 ug/m3 1.98 ug/m3 83.73 ug/m3 6.72 ug/m3 21.24 C 83.43 % 1,016.39 mbar 1.4 m/s 156.17 Deg 0.17 ug/m3
2021-06-04 19:00 2.45 ug/m3 1.92 ug/m3 91.87 ug/m3 6.9 ug/m3 21.68 C 78.96 % 1,015.94 mbar 2.38 m/s 175.55 Deg 0.38 ug/m3
2021-06-04 18:00 1.5 ug/m3 1.98 ug/m3 93 ug/m3 7.26 ug/m3 22.04 C 78.1 % 1,015.95 mbar 3.52 m/s 158.52 Deg -0.02 ug/m3
2021-06-04 17:00 0.87 ug/m3 1.79 ug/m3 97.58 ug/m3 6.05 ug/m3 22.4 C 71.13 % 1,016.20 mbar 4.1 m/s 169.83 Deg 0.42 ug/m3
2021-06-04 16:00 5.19 ug/m3 1.9 ug/m3 94.39 ug/m3 5.55 ug/m3 22.92 C 65.72 % 1,016.68 mbar 3.99 m/s 167.68 Deg 0.6 ug/m3
2021-06-04 15:00 0.89 ug/m3 2.07 ug/m3 108.94 ug/m3 5.47 ug/m3 23.61 C 50.33 % 1,016.88 mbar 4.1 m/s 155.33 Deg 0.28 ug/m3
2021-06-04 14:00 0.51 ug/m3 1.86 ug/m3 107.9 ug/m3 5.11 ug/m3 23.86 C 47.56 % 1,016.85 mbar 4.24 m/s 130.65 Deg 0.01 ug/m3
2021-06-04 13:00 0.28 ug/m3 1.79 ug/m3 105.59 ug/m3 4.44 ug/m3 23.71 C 50.83 % 1,017.01 mbar 4 m/s 136.63 Deg 0.29 ug/m3
2021-06-04 12:00 0.23 ug/m3 1.71 ug/m3 98.92 ug/m3 5.3 ug/m3 23.38 C 66.81 % 1,017.17 mbar 3.66 m/s 115.63 Deg 0 ug/m3
2021-06-04 11:00 0.35 ug/m3 1.53 ug/m3 94.5 ug/m3 7.21 ug/m3 22.83 C 76.08 % 1,017.10 mbar 4.02 m/s 118.77 Deg 0.13 ug/m3
2021-06-04 10:00 1.69 ug/m3 1.69 ug/m3 91.2 ug/m3 8.69 ug/m3 22.18 C 82.93 % 1,016.93 mbar 3.86 m/s 117.68 Deg 0.65 ug/m3
2021-06-04 09:00 2.48 ug/m3 1.56 ug/m3 88.43 ug/m3 14.79 ug/m3 21.7 C 88.88 % 1,016.57 mbar 3.87 m/s 107.92 Deg 0.36 ug/m3
2021-06-04 08:00 1.62 ug/m3 1.26 ug/m3 89.75 ug/m3 25.68 ug/m3 21.09 C 91.68 % 1,016.57 mbar 2.71 m/s 98.75 Deg 0.4 ug/m3
2021-06-04 07:00 4.92 ug/m3 1.53 ug/m3 78.48 ug/m3 26.68 ug/m3 20.46 C 94.91 % 1,016.28 mbar 1.96 m/s 101.8 Deg 0.58 ug/m3
2021-06-04 06:00 22.23 ug/m3 1.7 ug/m3 54.57 ug/m3 16.64 ug/m3 19.67 C 98.18 % 1,016.13 mbar 0.84 m/s 68.67 Deg 1.11 ug/m3
2021-06-04 05:00 4.77 ug/m3 1.57 ug/m3 76.92 ug/m3 8.85 ug/m3 19.38 C 98.56 % 1,015.70 mbar 1.01 m/s 91.23 Deg 0.04 ug/m3
2021-06-04 04:00 0.85 ug/m3 1.47 ug/m3 92.3 ug/m3 6.84 ug/m3 19.6 C 97.31 % 1,015.79 mbar 0.78 m/s 104.05 Deg 0.16 ug/m3
2021-06-04 03:00 0.88 ug/m3 1.89 ug/m3 96.73 ug/m3 9.1 ug/m3 19.59 C 96.22 % 1,015.59 mbar 0.88 m/s 88.3 Deg 0.19 ug/m3
2021-06-04 02:00 0.86 ug/m3 1.52 ug/m3 100.69 ug/m3 16.21 ug/m3 19.74 C 96.22 % 1,015.78 mbar 1.12 m/s 84.37 Deg 0.53 ug/m3
2021-06-04 01:00 -0.17 ug/m3 1.48 ug/m3 96.13 ug/m3 15.42 ug/m3 19.94 C 95 % 1,016.01 mbar 1.35 m/s 105.43 Deg 0.12 ug/m3
2021-06-04 00:00 0.83 ug/m3 1.68 ug/m3 92.26 ug/m3 14.53 ug/m3 20.13 C 94.64 % 1,016.25 mbar 1.57 m/s 119.45 Deg 0.35 ug/m3
2021-06-03 23:00 3.27 ug/m3 1.44 ug/m3 94.99 ug/m3 19.22 ug/m3 20.32 C 92.95 % 1,016.08 mbar 2.33 m/s 116.87 Deg -0.12 ug/m3
2021-06-03 22:00 0.05 ug/m3 1.58 ug/m3 97.5 ug/m3 9.92 ug/m3 20.38 C 91.97 % 1,016.19 mbar 2.49 m/s 119.28 Deg -0.07 ug/m3
2021-06-03 21:00 -0.11 ug/m3 1.35 ug/m3 101.14 ug/m3 8.79 ug/m3 20.52 C 90.62 % 1,015.65 mbar 3.09 m/s 115.27 Deg 0.1 ug/m3
2021-06-03 20:00 2.23 ug/m3 1.59 ug/m3 96.63 ug/m3 14.07 ug/m3 20.72 C 88.5 % 1,015.09 mbar 3.87 m/s 122.85 Deg 0.09 ug/m3
2021-06-03 19:00 0.67 ug/m3 1.55 ug/m3 106.25 ug/m3 20.81 ug/m3 21.05 C 85.96 % 1,014.55 mbar 4.94 m/s 129.82 Deg 0.16 ug/m3
2021-06-03 18:00 -0.28 ug/m3 1.4 ug/m3 108.68 ug/m3 23.07 ug/m3 21.49 C 81.41 % 1,014.29 mbar 5.63 m/s 129.87 Deg 0.43 ug/m3
2021-06-03 17:00 -0.23 ug/m3 1.48 ug/m3 112.66 ug/m3 8.36 ug/m3 21.87 C 78.08 % 1,014.42 mbar 5.3 m/s 121.08 Deg 0.09 ug/m3
2021-06-03 16:00 1.22 ug/m3 1.81 ug/m3 111.68 ug/m3 4.34 ug/m3 22.13 C 74.38 % 1,014.61 mbar 5.8 m/s 121.35 Deg 0.2 ug/m3
2021-06-03 15:00 1.44 ug/m3 1.8 ug/m3 112.26 ug/m3 6.72 ug/m3 22.38 C 74.55 % 1,014.89 mbar 5.82 m/s 118.4 Deg 0.31 ug/m3
2021-06-03 14:00 1.25 ug/m3 1.75 ug/m3 112.05 ug/m3 4.58 ug/m3 22.32 C 76.87 % 1,015.08 mbar 6.22 m/s 121.27 Deg -0.03 ug/m3
2021-06-03 13:00 -0.08 ug/m3 1.64 ug/m3 112.61 ug/m3 5.5 ug/m3 22.52 C 69.11 % 1,015.39 mbar 5.92 m/s 126.33 Deg 0.15 ug/m3
2021-06-03 12:00 0.55 ug/m3 1.57 ug/m3 115.23 ug/m3 5.66 ug/m3 22.52 C 67.39 % 1,015.53 mbar 5.52 m/s 107.3 Deg -0.1 ug/m3
2021-06-03 11:00 0.78 ug/m3 1.39 ug/m3 115.49 ug/m3 7.63 ug/m3 22.11 C 74.29 % 1,015.25 mbar 5.47 m/s 102.65 Deg 0.18 ug/m3
2021-06-03 10:00 1.72 ug/m3 1.46 ug/m3 112.27 ug/m3 8.29 ug/m3 21.97 C 78.41 % 1,014.86 mbar 5.27 m/s 101.6 Deg 0.53 ug/m3
2021-06-03 09:00 1.63 ug/m3 1.42 ug/m3 109.25 ug/m3 9.23 ug/m3 21.64 C 79.29 % 1,014.83 mbar 5.18 m/s 102.78 Deg 0.19 ug/m3
2021-06-03 08:00 -0.1 ug/m3 1.37 ug/m3 108.37 ug/m3 14.63 ug/m3 21.3 C 82.06 % 1,014.41 mbar 5.13 m/s 106.1 Deg 0.25 ug/m3
2021-06-03 07:00 0.39 ug/m3 1.44 ug/m3 105.15 ug/m3 11.99 ug/m3 20.81 C 85.24 % 1,013.86 mbar 4.62 m/s 104.73 Deg 0.03 ug/m3
2021-06-03 06:00 1.54 ug/m3 1.53 ug/m3 104.05 ug/m3 5.63 ug/m3 20.22 C 86.85 % 1,013.83 mbar 3.99 m/s 100.9 Deg 0.33 ug/m3
2021-06-03 05:00 -0.19 ug/m3 1.48 ug/m3 102.81 ug/m3 4.07 ug/m3 19.85 C 87.68 % 1,013.67 mbar 3.58 m/s 110.63 Deg -0.11 ug/m3
2021-06-03 04:00 -0.05 ug/m3 1.4 ug/m3 102.81 ug/m3 5.26 ug/m3 19.87 C 88.47 % 1,013.36 mbar 3.76 m/s 106.6 Deg -0.23 ug/m3
2021-06-03 03:00 -0.41 ug/m3 1.61 ug/m3 102.52 ug/m3 7.52 ug/m3 19.85 C 91.36 % 1,013.24 mbar 3.79 m/s 106.62 Deg 0.11 ug/m3
2021-06-03 02:00 -0.53 ug/m3 1.61 ug/m3 101 ug/m3 8.26 ug/m3 19.92 C 92.35 % 1,013.28 mbar 3.45 m/s 105.28 Deg 0.13 ug/m3
2021-06-03 01:00 -0.25 ug/m3 1.4 ug/m3 98.43 ug/m3 11.84 ug/m3 19.99 C 92.6 % 1,013.13 mbar 3.61 m/s 109.78 Deg 0.04 ug/m3
2021-06-03 00:00 -0.4 ug/m3 1.4 ug/m3 99.07 ug/m3 17.84 ug/m3 20.13 C 92.73 % 1,013.15 mbar 3.86 m/s 111.83 Deg -0.03 ug/m3
2021-06-02 23:00 0.06 ug/m3 1.54 ug/m3 102.07 ug/m3 20.34 ug/m3 20.23 C 92.83 % 1,012.72 mbar 4.55 m/s 112.58 Deg -0.11 ug/m3
2021-06-02 22:00 0.1 ug/m3 1.37 ug/m3 99.71 ug/m3 15.86 ug/m3 20.27 C 91.91 % 1,012.41 mbar 4.98 m/s 119.78 Deg 0.1 ug/m3
2021-06-02 21:00 -0.56 ug/m3 1.7 ug/m3 99.78 ug/m3 11.81 ug/m3 20.36 C 88.97 % 1,011.97 mbar 5.57 m/s 122.77 Deg 0.1 ug/m3
2021-06-02 20:00 0.25 ug/m3 1.39 ug/m3 98.49 ug/m3 13.98 ug/m3 20.48 C 87.02 % 1,011.63 mbar 5.92 m/s 119.87 Deg 0.03 ug/m3
2021-06-02 19:00 0.31 ug/m3 1.38 ug/m3 98.41 ug/m3 20.83 ug/m3 20.77 C 85.69 % 1,011.55 mbar 5.71 m/s 111 Deg -0.01 ug/m3
2021-06-02 18:00 0.36 ug/m3 1.34 ug/m3 102 ug/m3 14.61 ug/m3 21.16 C 83.19 % 1,011.21 mbar 6.07 m/s 102.13 Deg 0.02 ug/m3
2021-06-02 17:00 0.89 ug/m3 1.62 ug/m3 100.67 ug/m3 9.64 ug/m3 21.53 C 80.54 % 1,011.34 mbar 5.21 m/s 92.32 Deg 0.52 ug/m3
2021-06-02 16:00 0.26 ug/m3 1.52 ug/m3 99.39 ug/m3 5.82 ug/m3 21.86 C 80.81 % 1,011.23 mbar 5.35 m/s 103.13 Deg 0.16 ug/m3
2021-06-02 15:00 2.16 ug/m3 1.63 ug/m3 99.75 ug/m3 6.61 ug/m3 21.91 C 78.23 % 1,010.81 mbar 6.06 m/s 119.02 Deg 0.33 ug/m3
2021-06-02 14:00 1.05 ug/m3 1.39 ug/m3 103.65 ug/m3 6.49 ug/m3 22.22 C 68.32 % 1,010.77 mbar 6.56 m/s 120.13 Deg -0.01 ug/m3
2021-06-02 13:00 0.46 ug/m3 1.27 ug/m3 104.51 ug/m3 6.71 ug/m3 21.7 C 67.38 % 1,010.49 mbar 7.82 m/s 134.42 Deg -0.2 ug/m3
2021-06-02 12:00 0.6 ug/m3 1.43 ug/m3 95.09 ug/m3 6.34 ug/m3 21.78 C 72.33 % 1,010.39 mbar 8.47 m/s 139.2 Deg -0.02 ug/m3
2021-06-02 11:00 0.05 ug/m3 1.6 ug/m3 245.83 ug/m3 9.22 ug/m3 21.41 C 88.36 % 1,010.91 mbar 7.09 m/s 137.83 Deg 0.14 ug/m3
2021-06-02 10:00 0.61 ug/m3 1.13 ug/m3 137.4 ug/m3 9.96 ug/m3 21.4 C 90.45 % 1,010.76 mbar 6.3 m/s 133.65 Deg 0.22 ug/m3
2021-06-02 09:00 -0.09 ug/m3 1.52 ug/m3 0 ug/m3 8.8 ug/m3 21.18 C 94.38 % 1,010.41 mbar 5.81 m/s 124.17 Deg -0.08 ug/m3
2021-06-02 08:00 0.78 ug/m3 1.34 ug/m3 0 ug/m3 11.19 ug/m3 20.68 C 97.92 % 1,010.59 mbar 4.73 m/s 132.95 Deg 0.03 ug/m3
2021-06-02 07:00 0.24 ug/m3 1.35 ug/m3 0 ug/m3 14.92 ug/m3 20.94 C 95.27 % 1,010.01 mbar 5.36 m/s 132.72 Deg 0.39 ug/m3
2021-06-02 06:00 0.4 ug/m3 1.44 ug/m3 0 ug/m3 26.21 ug/m3 20.75 C 97.31 % 1,009.91 mbar 4.31 m/s 126.62 Deg -0.05 ug/m3
2021-06-02 05:00 -0.84 ug/m3 1.34 ug/m3 0 ug/m3 21.15 ug/m3 20.65 C 98.64 % 1,009.76 mbar 3.82 m/s 133.63 Deg 0.28 ug/m3
2021-06-02 04:00 -0.83 ug/m3 1.2 ug/m3 0 ug/m3 11.04 ug/m3 20.63 C 98.59 % 1,009.33 mbar 3.21 m/s 127.63 Deg 0.14 ug/m3
2021-06-02 03:00 -0.83 ug/m3 1.43 ug/m3 0 ug/m3 7.67 ug/m3 20.71 C 97.17 % 1,009.32 mbar 3.17 m/s 135.37 Deg 0.05 ug/m3
2021-06-02 02:00 0.2 ug/m3 1.41 ug/m3 0 ug/m3 7.18 ug/m3 20.66 C 96.59 % 1,009.16 mbar 2.77 m/s 124.68 Deg 0.28 ug/m3
2021-06-02 01:00 0.9 ug/m3 1.15 ug/m3 0 ug/m3 5.66 ug/m3 20.57 C 95.62 % 1,008.50 mbar 3.18 m/s 126.72 Deg 0.19 ug/m3
2021-06-02 00:00 -0.28 ug/m3 1.39 ug/m3 0 ug/m3 7.93 ug/m3 20.61 C 95.67 % 1,008.87 mbar 3.54 m/s 139.53 Deg 0.24 ug/m3
2021-06-01 23:00 -0.52 ug/m3 1.28 ug/m3 0 ug/m3 13.3 ug/m3 20.69 C 94.61 % 1,009.30 mbar 3.67 m/s 137.35 Deg 0.08 ug/m3
2021-06-01 22:00 3.27 ug/m3 1.32 ug/m3 0 ug/m3 21.76 ug/m3 20.73 C 93.66 % 1,009.20 mbar 3.81 m/s 144.75 Deg 0.23 ug/m3
2021-06-01 21:00 12.5 ug/m3 1.13 ug/m3 0 ug/m3 27.8 ug/m3 20.87 C 93.29 % 1,009.82 mbar 2.86 m/s 150.22 Deg 0.34 ug/m3
2021-06-01 20:00 0.64 ug/m3 1.44 ug/m3 0 ug/m3 22.04 ug/m3 20.94 C 92.85 % 1,009.32 mbar 3.09 m/s 167.18 Deg 0.17 ug/m3
2021-06-01 19:00 1.03 ug/m3 1.35 ug/m3 0 ug/m3 16.63 ug/m3 21.02 C 90.28 % 1,008.64 mbar 3.8 m/s 160.17 Deg 0.16 ug/m3
2021-06-01 18:00 2.65 ug/m3 1.57 ug/m3 0 ug/m3 13.62 ug/m3 21.36 C 88.54 % 1,008.63 mbar 3.65 m/s 160.55 Deg 0.55 ug/m3
2021-06-01 17:00 2.16 ug/m3 1.57 ug/m3 0 ug/m3 11.47 ug/m3 21.4 C 88.9 % 1,008.67 mbar 4.08 m/s 160.73 Deg 0.35 ug/m3
2021-06-01 16:00 1.87 ug/m3 1.34 ug/m3 0 ug/m3 10.63 ug/m3 21.73 C 86.55 % 1,008.96 mbar 3.94 m/s 155.93 Deg 0.07 ug/m3
2021-06-01 15:00 0.23 ug/m3 1.26 ug/m3 0 ug/m3 13.95 ug/m3 21.72 C 86.98 % 1,009.22 mbar 3.71 m/s 137.88 Deg 0.24 ug/m3
2021-06-01 14:00 0.11 ug/m3 1.43 ug/m3 0 ug/m3 8.08 ug/m3 21.76 C 86.97 % 1,009.07 mbar 4.33 m/s 126.52 Deg 0.06 ug/m3
2021-06-01 13:00 0.48 ug/m3 1.54 ug/m3 0 ug/m3 7.46 ug/m3 22.47 C 80.57 % 1,009.20 mbar 3.57 m/s 97.9 Deg -0.05 ug/m3
2021-06-01 12:00 1.23 ug/m3 1.51 ug/m3 0 ug/m3 7.34 ug/m3 22.19 C 79.9 % 1,009.80 mbar 3.32 m/s 117.3 Deg 0.45 ug/m3
2021-06-01 11:00 3.54 ug/m3 1.47 ug/m3 0 ug/m3 8.82 ug/m3 21.61 C 83.85 % 1,010.37 mbar 2.74 m/s 162.15 Deg 0.63 ug/m3
2021-06-01 10:00 3.8 ug/m3 1.53 ug/m3 0 ug/m3 11.36 ug/m3 21.02 C 89.09 % 1,010.07 mbar 2.51 m/s 116.42 Deg 0.32 ug/m3
2021-06-01 09:00 7.42 ug/m3 1.5 ug/m3 0 ug/m3 17.01 ug/m3 21.48 C 83.5 % 1,009.67 mbar 2.68 m/s 91.15 Deg 1.11 ug/m3
2021-06-01 08:00 6.5 ug/m3 1.67 ug/m3 0 ug/m3 28.06 ug/m3 21.29 C 87.08 % 1,009.44 mbar 2.15 m/s 68.07 Deg 1.24 ug/m3
2021-06-01 07:00 14.92 ug/m3 1.6 ug/m3 0 ug/m3 29.77 ug/m3 20.65 C 90.15 % 1,009.05 mbar 2.61 m/s 45.47 Deg 2.7 ug/m3
2021-06-01 06:00 17.43 ug/m3 1.34 ug/m3 0 ug/m3 20.52 ug/m3 19.87 C 93.44 % 1,008.85 mbar 1.83 m/s 53.38 Deg 1.06 ug/m3
2021-06-01 05:00 10.63 ug/m3 1.34 ug/m3 0 ug/m3 17.83 ug/m3 19.71 C 94.89 % 1,008.51 mbar 1.4 m/s 86.88 Deg 0.85 ug/m3
2021-06-01 04:00 2.65 ug/m3 1.72 ug/m3 0 ug/m3 27.47 ug/m3 19.76 C 94.61 % 1,008.30 mbar 1.24 m/s 204.17 Deg -0.09 ug/m3
2021-06-01 03:00 2.2 ug/m3 1.63 ug/m3 0 ug/m3 16.25 ug/m3 19.71 C 93.4 % 1,008.25 mbar 1.44 m/s 181.53 Deg 0.29 ug/m3
2021-06-01 02:00 1.82 ug/m3 1.5 ug/m3 0 ug/m3 18.1 ug/m3 19.81 C 91.73 % 1,008.34 mbar 1.67 m/s 189.83 Deg -0.14 ug/m3
2021-06-01 01:00 2.87 ug/m3 1.55 ug/m3 0 ug/m3 27.01 ug/m3 19.97 C 89.12 % 1,008.51 mbar 2.31 m/s 109.58 Deg -0.31 ug/m3
2021-06-01 00:00 14.45 ug/m3 1.55 ug/m3 0 ug/m3 32.82 ug/m3 20.15 C 88.61 % 1,008.79 mbar 1.84 m/s 191.02 Deg 0.03 ug/m3
2021-05-31 23:00 22.22 ug/m3 1.66 ug/m3 0 ug/m3 29.06 ug/m3 20.43 C 85.95 % 1,008.98 mbar 1.76 m/s 228.28 Deg 0.37 ug/m3
2021-05-31 22:00 12.19 ug/m3 1.64 ug/m3 0 ug/m3 11.62 ug/m3 20.92 C 78.77 % 1,008.84 mbar 2.05 m/s 276.2 Deg -0.08 ug/m3
2021-05-31 21:00 14.91 ug/m3 1.44 ug/m3 0 ug/m3 6.75 ug/m3 21.73 C 69.26 % 1,008.45 mbar 2.17 m/s 237.03 Deg 0.24 ug/m3
2021-05-31 20:00 16.85 ug/m3 1.71 ug/m3 0 ug/m3 9.31 ug/m3 22.6 C 61.4 % 1,007.75 mbar 1.42 m/s 300.57 Deg 0.62 ug/m3
2021-05-31 19:00 12.38 ug/m3 1.48 ug/m3 0 ug/m3 14.91 ug/m3 23.88 C 59.54 % 1,007.42 mbar 1.87 m/s 291.57 Deg 0.59 ug/m3
2021-05-31 18:00 7.52 ug/m3 1.67 ug/m3 0 ug/m3 27.32 ug/m3 23.44 C 73.1 % 1,007.55 mbar 2.15 m/s 268.67 Deg 0.25 ug/m3
2021-05-31 17:00 4.08 ug/m3 1.61 ug/m3 0 ug/m3 37.66 ug/m3 22.77 C 80.85 % 1,007.84 mbar 3.01 m/s 253.67 Deg 0.45 ug/m3
2021-05-31 16:00 2.04 ug/m3 1.58 ug/m3 0 ug/m3 26.43 ug/m3 22.71 C 80.58 % 1,008.09 mbar 3.46 m/s 209.7 Deg 0.29 ug/m3
2021-05-31 15:00 8.56 ug/m3 1.63 ug/m3 0 ug/m3 20.51 ug/m3 22.3 C 80.7 % 1,008.53 mbar 3.18 m/s 168.02 Deg 1.28 ug/m3
2021-05-31 14:00 0.9 ug/m3 1.66 ug/m3 0 ug/m3 30.95 ug/m3 22.45 C 78.12 % 1,008.46 mbar 2.94 m/s 130.03 Deg 0.48 ug/m3
2021-05-31 13:00 2.54 ug/m3 1.59 ug/m3 0 ug/m3 17.87 ug/m3 23.21 C 74.18 % 1,008.67 mbar 2.36 m/s 107.6 Deg 0.09 ug/m3
2021-05-31 12:00 5.35 ug/m3 1.65 ug/m3 0 ug/m3 13.16 ug/m3 22.81 C 75.69 % 1,008.91 mbar 2.1 m/s 101.75 Deg 0.88 ug/m3
2021-05-31 11:00 6.41 ug/m3 1.64 ug/m3 0 ug/m3 20.21 ug/m3 22.49 C 75.7 % 1,009.06 mbar 2.32 m/s 54.73 Deg 1.03 ug/m3
2021-05-31 10:00 9.45 ug/m3 1.57 ug/m3 0 ug/m3 29.04 ug/m3 22.24 C 75.21 % 1,009.18 mbar 2.28 m/s 120.4 Deg 2.6 ug/m3
2021-05-31 09:00 18.73 ug/m3 1.53 ug/m3 0 ug/m3 27.04 ug/m3 21.83 C 78.07 % 1,009.11 mbar 2.09 m/s 87.53 Deg 4.36 ug/m3
2021-05-31 08:00 19.57 ug/m3 1.48 ug/m3 0 ug/m3 23.37 ug/m3 21.05 C 81.06 % 1,009.09 mbar 1.72 m/s 296 Deg 4.13 ug/m3
2021-05-31 07:00 22.42 ug/m3 1.48 ug/m3 37.27 ug/m3 26.72 ug/m3 19.95 C 87.17 % 1,009.14 mbar 2.04 m/s 309.97 Deg 4.11 ug/m3
2021-05-31 06:00 18.5 ug/m3 1.63 ug/m3 37.28 ug/m3 25.95 ug/m3 19.36 C 90.87 % 1,008.78 mbar 1.65 m/s 302.37 Deg 1.43 ug/m3
2021-05-31 05:00 7.9 ug/m3 1.41 ug/m3 40.3 ug/m3 23.64 ug/m3 19.06 C 92.6 % 1,008.57 mbar 1.33 m/s 295.12 Deg 0.29 ug/m3
2021-05-31 04:00 3.91 ug/m3 1.6 ug/m3 38.47 ug/m3 17.81 ug/m3 18.92 C 93.64 % 1,008.45 mbar 1.77 m/s 296.47 Deg 0.16 ug/m3
2021-05-31 03:00 1.81 ug/m3 1.43 ug/m3 40.46 ug/m3 17.88 ug/m3 19.13 C 93.66 % 1,008.68 mbar 1.77 m/s 301.93 Deg -0.24 ug/m3
2021-05-31 02:00 1.5 ug/m3 1.67 ug/m3 43.98 ug/m3 23.26 ug/m3 19.42 C 89.96 % 1,008.82 mbar 1.07 m/s 281.03 Deg -0.03 ug/m3
2021-05-31 01:00 2.49 ug/m3 1.46 ug/m3 45.95 ug/m3 24.69 ug/m3 19.38 C 89.76 % 1,008.85 mbar 0.94 m/s 223.6 Deg 0.2 ug/m3
2021-05-31 00:00 2.8 ug/m3 1.68 ug/m3 56.72 ug/m3 35.63 ug/m3 19.78 C 89.63 % 1,009.03 mbar 1.99 m/s 285.77 Deg 0.24 ug/m3
2021-05-30 23:00 4.96 ug/m3 1.77 ug/m3 54.58 ug/m3 44.85 ug/m3 19.8 C 88.48 % 1,009.11 mbar 1.91 m/s 274.27 Deg 0.15 ug/m3
2021-05-30 22:00 14.59 ug/m3 1.73 ug/m3 43.97 ug/m3 43.84 ug/m3 20.08 C 86.1 % 1,008.88 mbar 1.49 m/s 268.1 Deg 0.33 ug/m3
2021-05-30 21:00 12.81 ug/m3 1.73 ug/m3 54.42 ug/m3 39.13 ug/m3 20.52 C 83.4 % 1,008.59 mbar 1.39 m/s 282.22 Deg 0.23 ug/m3
2021-05-30 20:00 14.78 ug/m3 1.71 ug/m3 60.2 ug/m3 28.8 ug/m3 21.51 C 69.01 % 1,008.02 mbar 1.81 m/s 302.77 Deg 0.93 ug/m3
2021-05-30 19:00 9.1 ug/m3 1.71 ug/m3 60.91 ug/m3 9.86 ug/m3 22.86 C 55.95 % 1,007.65 mbar 2.45 m/s 276.02 Deg 0.82 ug/m3
2021-05-30 18:00 7.58 ug/m3 1.78 ug/m3 66.43 ug/m3 7.99 ug/m3 24.26 C 48.91 % 1,007.32 mbar 2.35 m/s 299.08 Deg 0.55 ug/m3
2021-05-30 17:00 4.54 ug/m3 1.65 ug/m3 64.74 ug/m3 9.61 ug/m3 25.63 C 34.8 % 1,007.29 mbar 2.51 m/s 295.53 Deg 0.58 ug/m3
2021-05-30 16:00 3.37 ug/m3 1.56 ug/m3 69.18 ug/m3 10.84 ug/m3 26.08 C 36.53 % 1,007.48 mbar 2.35 m/s 283.07 Deg 0.17 ug/m3
2021-05-30 15:00 3.6 ug/m3 1.62 ug/m3 85.31 ug/m3 16.86 ug/m3 25.17 C 52.91 % 1,007.73 mbar 2.8 m/s 197.23 Deg -0.04 ug/m3
2021-05-30 14:00 4.79 ug/m3 1.71 ug/m3 95.55 ug/m3 21.41 ug/m3 23.55 C 68.02 % 1,008.12 mbar 4.2 m/s 145.8 Deg 0.73 ug/m3
2021-05-30 13:00 7.27 ug/m3 1.66 ug/m3 91.21 ug/m3 21.9 ug/m3 25.46 C 57.01 % 1,008.11 mbar 3.6 m/s 156.42 Deg 0.84 ug/m3
2021-05-30 12:00 7.94 ug/m3 1.73 ug/m3 91.71 ug/m3 27.08 ug/m3 24.83 C 61.31 % 1,008.31 mbar 3.45 m/s 137.15 Deg 0.79 ug/m3
2021-05-30 11:00 9.36 ug/m3 1.84 ug/m3 77.05 ug/m3 15.68 ug/m3 25.6 C 54.58 % 1,008.20 mbar 2.41 m/s 193.2 Deg 1.23 ug/m3
2021-05-30 10:00 10.23 ug/m3 1.85 ug/m3 66.79 ug/m3 13.92 ug/m3 25.64 C 44.81 % 1,008.28 mbar 2.27 m/s 249.55 Deg 1.76 ug/m3
2021-05-30 09:00 9.35 ug/m3 1.87 ug/m3 66.21 ug/m3 24.15 ug/m3 24.56 C 50.17 % 1,008.42 mbar 1.76 m/s 275.85 Deg 1.02 ug/m3
2021-05-30 08:00 11.99 ug/m3 1.74 ug/m3 65.69 ug/m3 19.61 ug/m3 22.94 C 60.68 % 1,008.48 mbar 1.79 m/s 293.05 Deg 1.32 ug/m3
2021-05-30 07:00 20.71 ug/m3 1.72 ug/m3 48.88 ug/m3 20.75 ug/m3 20.98 C 68.11 % 1,008.47 mbar 1.61 m/s 307.7 Deg 1.75 ug/m3
2021-05-30 06:00 18.74 ug/m3 1.68 ug/m3 42.1 ug/m3 14.7 ug/m3 19.64 C 71.88 % 1,008.34 mbar 1.19 m/s 305.73 Deg 1.08 ug/m3
2021-05-30 05:00 11.91 ug/m3 1.68 ug/m3 43.33 ug/m3 7.01 ug/m3 19.31 C 72.44 % 1,008.31 mbar 1.31 m/s 300.28 Deg 0.09 ug/m3
2021-05-30 04:00 11.79 ug/m3 1.37 ug/m3 35.99 ug/m3 7.84 ug/m3 19.31 C 73.62 % 1,008.44 mbar 1.55 m/s 301.28 Deg 0.13 ug/m3
2021-05-30 03:00 11.99 ug/m3 1.47 ug/m3 31.75 ug/m3 10.37 ug/m3 19.44 C 86.44 % 1,008.49 mbar 1.21 m/s 321.4 Deg -0.11 ug/m3
2021-05-30 02:00 21.5 ug/m3 1.44 ug/m3 21.01 ug/m3 14.3 ug/m3 19.31 C 95.62 % 1,008.58 mbar 1.22 m/s 308.38 Deg 0.17 ug/m3
2021-05-30 01:00 10.91 ug/m3 1.37 ug/m3 38.42 ug/m3 18.37 ug/m3 19.79 C 98.2 % 1,008.68 mbar 1.19 m/s 283.15 Deg 0.19 ug/m3
2021-05-30 00:00 10.7 ug/m3 1.48 ug/m3 39.82 ug/m3 18.5 ug/m3 19.97 C 97.64 % 1,008.95 mbar 1.03 m/s 214.53 Deg -0.01 ug/m3
2021-05-29 23:00 7.61 ug/m3 1.35 ug/m3 46.38 ug/m3 20.86 ug/m3 19.99 C 98.04 % 1,009.16 mbar 1.07 m/s 26.13 Deg 0.38 ug/m3
2021-05-29 22:00 5.69 ug/m3 1.61 ug/m3 49.33 ug/m3 27.83 ug/m3 20.12 C 98.79 % 1,009.20 mbar 1.41 m/s 47 Deg 0.25 ug/m3
2021-05-29 21:00 11.56 ug/m3 1.46 ug/m3 44.95 ug/m3 20.69 ug/m3 20.35 C 96.45 % 1,008.85 mbar 1.37 m/s 35.05 Deg 0.37 ug/m3
2021-05-29 20:00 9.57 ug/m3 1.3 ug/m3 56.97 ug/m3 10.49 ug/m3 20.84 C 88 % 1,008.57 mbar 1.52 m/s 56.85 Deg 0.48 ug/m3
2021-05-29 19:00 4.93 ug/m3 1.34 ug/m3 63.26 ug/m3 13.4 ug/m3 21.34 C 83.92 % 1,008.32 mbar 1.66 m/s 87.9 Deg 0.11 ug/m3
2021-05-29 18:00 2.52 ug/m3 1.36 ug/m3 62.77 ug/m3 21.75 ug/m3 21.67 C 82.98 % 1,008.06 mbar 2.07 m/s 87.58 Deg 0.06 ug/m3
2021-05-29 17:00 2.52 ug/m3 1.41 ug/m3 64.56 ug/m3 20.37 ug/m3 20.91 C 93.4 % 1,007.81 mbar 3.27 m/s 133.1 Deg 0.29 ug/m3
2021-05-29 16:00 1.53 ug/m3 1.47 ug/m3 65.21 ug/m3 9.49 ug/m3 21.03 C 91.82 % 1,008.44 mbar 2.75 m/s 106.25 Deg 0.14 ug/m3
2021-05-29 15:00 0.9 ug/m3 1.6 ug/m3 78.21 ug/m3 6.28 ug/m3 21.97 C 81.81 % 1,008.63 mbar 3.48 m/s 108.05 Deg -0.36 ug/m3
2021-05-29 14:00 1.24 ug/m3 1.67 ug/m3 84.67 ug/m3 5.41 ug/m3 22.53 C 80.27 % 1,008.62 mbar 4.21 m/s 103.62 Deg 0.33 ug/m3
2021-05-29 13:00 0.96 ug/m3 1.52 ug/m3 82.2 ug/m3 5.63 ug/m3 22.46 C 81.56 % 1,009.07 mbar 4.23 m/s 100.85 Deg 0.2 ug/m3
2021-05-29 12:00 2.01 ug/m3 1.41 ug/m3 78.36 ug/m3 9.14 ug/m3 22.05 C 86.35 % 1,008.98 mbar 4.87 m/s 106.85 Deg 0.58 ug/m3
2021-05-29 11:00 1.24 ug/m3 1.56 ug/m3 73.4 ug/m3 15.87 ug/m3 21.85 C 89.26 % 1,008.95 mbar 5.16 m/s 102.45 Deg 0.33 ug/m3
2021-05-29 10:00 2.5 ug/m3 1.42 ug/m3 68.02 ug/m3 16.89 ug/m3 21.83 C 88.46 % 1,008.95 mbar 5.03 m/s 97.13 Deg 0.28 ug/m3
2021-05-29 09:00 5.73 ug/m3 1.52 ug/m3 62.4 ug/m3 26.38 ug/m3 21.26 C 91.02 % 1,008.78 mbar 3.6 m/s 70.55 Deg 0.73 ug/m3
2021-05-29 08:00 5.4 ug/m3 1.56 ug/m3 61.26 ug/m3 11.15 ug/m3 20.54 C 95.13 % 1,008.15 mbar 3.78 m/s 73.8 Deg 0.76 ug/m3
2021-05-29 07:00 5.8 ug/m3 1.44 ug/m3 57.99 ug/m3 7.11 ug/m3 20.18 C 94.81 % 1,008.41 mbar 3.04 m/s 71.45 Deg 0.62 ug/m3
2021-05-29 06:00 4.74 ug/m3 1.4 ug/m3 58.06 ug/m3 12.43 ug/m3 19.66 C 96.52 % 1,008.74 mbar 2.85 m/s 61.65 Deg 0.34 ug/m3
2021-05-29 05:00 5.56 ug/m3 1.51 ug/m3 56.14 ug/m3 16.84 ug/m3 19.65 C 99.06 % 1,008.84 mbar 2.84 m/s 44.92 Deg 0.04 ug/m3
2021-05-29 04:00 2.75 ug/m3 1.47 ug/m3 55.14 ug/m3 28.66 ug/m3 19.7 C 100 % 1,008.64 mbar 2.75 m/s 47.75 Deg -0.19 ug/m3
2021-05-29 03:00 4.3 ug/m3 1.49 ug/m3 53.47 ug/m3 16.22 ug/m3 19.86 C 99.3 % 1,008.77 mbar 2.51 m/s 50.15 Deg 0.45 ug/m3
2021-05-29 02:00 5.36 ug/m3 1.48 ug/m3 49.67 ug/m3 11.05 ug/m3 20.03 C 97.24 % 1,009.00 mbar 2.64 m/s 48.18 Deg -0.12 ug/m3
2021-05-29 01:00 6.37 ug/m3 1.44 ug/m3 47.41 ug/m3 15.43 ug/m3 20.11 C 96.15 % 1,008.88 mbar 1.97 m/s 68.82 Deg 0.05 ug/m3
2021-05-29 00:00 8.18 ug/m3 1.52 ug/m3 47.88 ug/m3 20.95 ug/m3 20.24 C 95.26 % 1,008.94 mbar 2.34 m/s 64.17 Deg 0.54 ug/m3
2021-05-28 23:00 7.62 ug/m3 1.47 ug/m3 46.04 ug/m3 24.13 ug/m3 20.41 C 93.78 % 1,008.75 mbar 2.32 m/s 66.78 Deg 0.2 ug/m3
2021-05-28 22:00 4.54 ug/m3 1.29 ug/m3 51.51 ug/m3 24.19 ug/m3 20.43 C 93.44 % 1,008.37 mbar 3.11 m/s 93.43 Deg 0.22 ug/m3
2021-05-28 21:00 3.29 ug/m3 1.41 ug/m3 56.6 ug/m3 17.7 ug/m3 20.46 C 94.05 % 1,007.35 mbar 4.59 m/s 100.5 Deg 0.11 ug/m3
2021-05-28 20:00 3.08 ug/m3 1.58 ug/m3 58.76 ug/m3 23.87 ug/m3 20.54 C 93.65 % 1,007.47 mbar 3.25 m/s 90.88 Deg -0.06 ug/m3
2021-05-28 19:00 3.62 ug/m3 1.46 ug/m3 67.96 ug/m3 21.53 ug/m3 20.87 C 90.06 % 1,007.35 mbar 3.88 m/s 88.07 Deg -0.04 ug/m3
2021-05-28 18:00 2.54 ug/m3 1.6 ug/m3 71.49 ug/m3 20.67 ug/m3 21.42 C 84.1 % 1,007.43 mbar 4.33 m/s 92.55 Deg 0.03 ug/m3
2021-05-28 17:00 4.43 ug/m3 1.55 ug/m3 80.5 ug/m3 22.43 ug/m3 21.71 C 80.05 % 1,007.34 mbar 4.94 m/s 98.1 Deg 0.42 ug/m3
2021-05-28 16:00 5.12 ug/m3 1.52 ug/m3 80.46 ug/m3 33.78 ug/m3 22.12 C 75.84 % 1,007.65 mbar 5.29 m/s 98.27 Deg 0.58 ug/m3
2021-05-28 15:00 5.01 ug/m3 1.62 ug/m3 87.11 ug/m3 25.6 ug/m3 22.68 C 71.92 % 1,008.02 mbar 4.3 m/s 94.25 Deg 0.65 ug/m3
2021-05-28 14:00 12.49 ug/m3 1.8 ug/m3 84.13 ug/m3 12.66 ug/m3 22.98 C 70.52 % 1,008.00 mbar 3.54 m/s 74.62 Deg 1.27 ug/m3
2021-05-28 13:00 5.57 ug/m3 1.64 ug/m3 81.64 ug/m3 13.62 ug/m3 23.34 C 57.03 % 1,008.27 mbar 4.42 m/s 98.75 Deg 0.72 ug/m3
2021-05-28 12:00 8.89 ug/m3 1.52 ug/m3 68.1 ug/m3 24.7 ug/m3 23.42 C 57.75 % 1,009.14 mbar 3.83 m/s 96.78 Deg 1.69 ug/m3
2021-05-28 11:00 19.33 ug/m3 1.79 ug/m3 53.13 ug/m3 31.54 ug/m3 22.99 C 66.84 % 1,009.12 mbar 3.17 m/s 56.68 Deg 4.15 ug/m3
2021-05-28 10:00 11.23 ug/m3 1.84 ug/m3 55.43 ug/m3 37.97 ug/m3 23.76 C 57.79 % 1,008.75 mbar 2.59 m/s 51.03 Deg 2.67 ug/m3
2021-05-28 09:00 23.92 ug/m3 1.92 ug/m3 46.75 ug/m3 39.32 ug/m3 24.07 C 50.21 % 1,008.93 mbar 1.67 m/s 60.9 Deg 4.55 ug/m3
2021-05-28 08:00 42.1 ug/m3 1.73 ug/m3 19.43 ug/m3 27.15 ug/m3 22.81 C 58.27 % 1,008.72 mbar 0.82 m/s 103.5 Deg 8.95 ug/m3
2021-05-28 07:00 54.82 ug/m3 1.82 ug/m3 10.42 ug/m3 14.3 ug/m3 21.5 C 67.66 % 1,008.22 mbar 0.81 m/s 146.27 Deg 13.12 ug/m3
2021-05-28 06:00 36.26 ug/m3 1.79 ug/m3 18.58 ug/m3 14.67 ug/m3 20.82 C 72.48 % 1,007.71 mbar 0.63 m/s 205.15 Deg 4.43 ug/m3
2021-05-28 05:00 14.13 ug/m3 1.49 ug/m3 32.25 ug/m3 12.28 ug/m3 20.37 C 84.96 % 1,007.70 mbar 1.37 m/s 295.85 Deg 0.72 ug/m3
2021-05-28 04:00 7.92 ug/m3 1.71 ug/m3 33.28 ug/m3 13.11 ug/m3 20.19 C 87.91 % 1,007.14 mbar 0.72 m/s 270.47 Deg 0.24 ug/m3
2021-05-28 03:00 12.05 ug/m3 1.61 ug/m3 38.82 ug/m3 11.58 ug/m3 20.21 C 91.54 % 1,007.29 mbar 0.9 m/s 268.23 Deg 0.06 ug/m3
2021-05-28 02:00 1.26 ug/m3 1.47 ug/m3 49.03 ug/m3 13.15 ug/m3 20.75 C 84.68 % 1,007.40 mbar 1.6 m/s 136.53 Deg 0.06 ug/m3
2021-05-28 01:00 4.47 ug/m3 1.61 ug/m3 36.95 ug/m3 18.32 ug/m3 20.53 C 83.06 % 1,007.81 mbar 1.13 m/s 163.57 Deg 0.28 ug/m3
2021-05-28 00:00 4.3 ug/m3 1.52 ug/m3 34.04 ug/m3 32.84 ug/m3 20.24 C 94.28 % 1,008.34 mbar 0.68 m/s 113.43 Deg -0.03 ug/m3
2021-05-27 23:00 4.67 ug/m3 1.51 ug/m3 34.28 ug/m3 33.12 ug/m3 20.43 C 93.02 % 1,008.52 mbar 0.66 m/s 125.28 Deg 0.44 ug/m3
2021-05-27 22:00 7.17 ug/m3 1.67 ug/m3 37.51 ug/m3 39.37 ug/m3 20.79 C 89.14 % 1,008.41 mbar 1.06 m/s 100.42 Deg -0 ug/m3
2021-05-27 21:00 8.83 ug/m3 1.77 ug/m3 40.83 ug/m3 39.91 ug/m3 21.3 C 82.65 % 1,008.32 mbar 0.92 m/s 152.03 Deg -0.2 ug/m3
2021-05-27 20:00 10.28 ug/m3 1.82 ug/m3 49.23 ug/m3 28.58 ug/m3 21.91 C 75.63 % 1,007.97 mbar 1.17 m/s 123.47 Deg 0.05 ug/m3
2021-05-27 19:00 9.64 ug/m3 1.99 ug/m3 53.1 ug/m3 37.14 ug/m3 23.27 C 62.16 % 1,007.88 mbar 1.15 m/s 190.78 Deg 0.07 ug/m3
2021-05-27 18:00 2.18 ug/m3 1.9 ug/m3 65.75 ug/m3 20.71 ug/m3 23.8 C 57.92 % 1,007.57 mbar 2.2 m/s 218.7 Deg 0.33 ug/m3
2021-05-27 17:00 1.68 ug/m3 1.63 ug/m3 71.02 ug/m3 12.23 ug/m3 24.6 C 50.55 % 1,007.88 mbar 3.13 m/s 202.33 Deg 0.16 ug/m3
2021-05-27 16:00 13.82 ug/m3 1.7 ug/m3 62.45 ug/m3 10.93 ug/m3 24.35 C 55.6 % 1,008.27 mbar 3.39 m/s 192.27 Deg 2.9 ug/m3
2021-05-27 15:00 9.48 ug/m3 1.69 ug/m3 73.13 ug/m3 7.35 ug/m3 25.28 C 45.44 % 1,008.28 mbar 4.01 m/s 172.52 Deg 1.78 ug/m3
2021-05-27 14:00 8.48 ug/m3 1.48 ug/m3 64.65 ug/m3 10.04 ug/m3 26.3 C 46.02 % 1,008.86 mbar 1.65 m/s 215.85 Deg 1.1 ug/m3
2021-05-27 13:00 4.64 ug/m3 1.8 ug/m3 64.75 ug/m3 15.41 ug/m3 26.11 C 37.93 % 1,009.32 mbar 2.7 m/s 230.97 Deg 0.68 ug/m3
2021-05-27 12:00 18.47 ug/m3 1.77 ug/m3 62.34 ug/m3 24.81 ug/m3 24.27 C 55.1 % 1,009.25 mbar 3.16 m/s 176.53 Deg 3.23 ug/m3
2021-05-27 11:00 16.67 ug/m3 1.8 ug/m3 57.8 ug/m3 24.74 ug/m3 23.6 C 66.14 % 1,009.11 mbar 2.57 m/s 146.57 Deg 2.89 ug/m3
2021-05-27 10:00 19.23 ug/m3 1.69 ug/m3 47.29 ug/m3 35.89 ug/m3 23.36 C 67.65 % 1,009.15 mbar 1.73 m/s 65.4 Deg 3.82 ug/m3
2021-05-27 09:00 28.78 ug/m3 1.93 ug/m3 36.59 ug/m3 30.22 ug/m3 23.39 C 62.51 % 1,009.20 mbar 2.11 m/s 72.58 Deg 6.58 ug/m3
2021-05-27 08:00 18.7 ug/m3 1.6 ug/m3 42.58 ug/m3 46.42 ug/m3 22.49 C 64.32 % 1,008.98 mbar 1.2 m/s 266.95 Deg 2.5 ug/m3
2021-05-27 07:00 22.56 ug/m3 1.8 ug/m3 39.57 ug/m3 22.38 ug/m3 19.84 C 88.57 % 1,008.39 mbar 1.44 m/s 207.97 Deg 2.17 ug/m3
2021-05-27 06:00 13.25 ug/m3 1.71 ug/m3 38.12 ug/m3 19.19 ug/m3 18.85 C 87.78 % 1,007.83 mbar 1.64 m/s 164.03 Deg 0.37 ug/m3
2021-05-27 05:00 16.25 ug/m3 1.68 ug/m3 40.34 ug/m3 11.11 ug/m3 19.19 C 85.84 % 1,008.48 mbar 1.64 m/s 275.23 Deg 0.85 ug/m3
2021-05-27 04:00 7.56 ug/m3 1.57 ug/m3 45.89 ug/m3 7.24 ug/m3 19.86 C 63.11 % 1,008.73 mbar 1.82 m/s 309.15 Deg 0.15 ug/m3
2021-05-27 03:00 7.14 ug/m3 1.71 ug/m3 42.18 ug/m3 6.27 ug/m3 20.39 C 50.25 % 1,008.74 mbar 1 m/s 276.1 Deg -0.11 ug/m3
2021-05-27 02:00 6.44 ug/m3 1.62 ug/m3 43.41 ug/m3 7.3 ug/m3 20.61 C 49.79 % 1,008.55 mbar 1.06 m/s 307.12 Deg 0.01 ug/m3
2021-05-27 01:00 7.93 ug/m3 1.61 ug/m3 45.3 ug/m3 9.35 ug/m3 20.6 C 54.62 % 1,008.55 mbar 1.39 m/s 298.2 Deg 0.08 ug/m3
2021-05-27 00:00 8.43 ug/m3 1.89 ug/m3 45.43 ug/m3 9.16 ug/m3 21.07 C 50.54 % 1,008.73 mbar 1.43 m/s 289.3 Deg 0.47 ug/m3
2021-05-26 23:00 12.2 ug/m3 1.82 ug/m3 41.65 ug/m3 10.41 ug/m3 20.29 C 60.7 % 1,009.20 mbar 1.08 m/s 261.83 Deg 0.23 ug/m3
2021-05-26 22:00 10.71 ug/m3 1.62 ug/m3 49.17 ug/m3 17.46 ug/m3 20.57 C 67.54 % 1,009.76 mbar 1.36 m/s 279.55 Deg 0.01 ug/m3
2021-05-26 21:00 13.86 ug/m3 1.61 ug/m3 50.33 ug/m3 18.73 ug/m3 20.76 C 72.18 % 1,009.54 mbar 1.41 m/s 314.77 Deg 1.24 ug/m3
2021-05-26 20:00 10.91 ug/m3 1.98 ug/m3 57.81 ug/m3 18.03 ug/m3 21.1 C 70.11 % 1,009.61 mbar 1.61 m/s 295.52 Deg 0.17 ug/m3
2021-05-26 19:00 13.58 ug/m3 1.99 ug/m3 60.89 ug/m3 13.24 ug/m3 22.01 C 63.62 % 1,009.76 mbar 2.05 m/s 268.72 Deg 0.6 ug/m3
2021-05-26 18:00 7.62 ug/m3 1.93 ug/m3 73.08 ug/m3 13.68 ug/m3 21.9 C 64.24 % 1,009.68 mbar 2.8 m/s 89.48 Deg 1.15 ug/m3
2021-05-26 17:00 8.63 ug/m3 2.15 ug/m3 68.72 ug/m3 19.2 ug/m3 22.99 C 55.4 % 1,009.57 mbar 1.91 m/s 68.43 Deg 1.14 ug/m3
2021-05-26 16:00 6.99 ug/m3 2.04 ug/m3 78.66 ug/m3 25.16 ug/m3 22.47 C 70.07 % 1,009.99 mbar 2.4 m/s 147.72 Deg 1.13 ug/m3
2021-05-26 15:00 7.66 ug/m3 2.23 ug/m3 80.73 ug/m3 9.81 ug/m3 22.29 C 76.14 % 1,010.51 mbar 2.68 m/s 140.68 Deg 0.53 ug/m3
2021-05-26 14:00 9.36 ug/m3 2.11 ug/m3 64.88 ug/m3 6.13 ug/m3 23.76 C 52.99 % 1,010.58 mbar 2.17 m/s 131.3 Deg 2.13 ug/m3
2021-05-26 13:00 7.43 ug/m3 2.13 ug/m3 68.8 ug/m3 8.65 ug/m3 23.39 C 59.93 % 1,010.94 mbar 2.63 m/s 85.27 Deg 1.73 ug/m3
2021-05-26 12:00 7.41 ug/m3 2.05 ug/m3 67.07 ug/m3 15.36 ug/m3 23.35 C 53.8 % 1,011.19 mbar 3.63 m/s 125.55 Deg 1.67 ug/m3
2021-05-26 11:00 9.04 ug/m3 1.63 ug/m3 58.01 ug/m3 26.67 ug/m3 23.53 C 52.42 % 1,011.64 mbar 3.2 m/s 56.52 Deg 2.03 ug/m3
2021-05-26 10:00 18.49 ug/m3 1.53 ug/m3 44.25 ug/m3 32.5 ug/m3 23.27 C 71.66 % 1,011.62 mbar 1.39 m/s 144.05 Deg 4.14 ug/m3
2021-05-26 09:00 20.49 ug/m3 1.51 ug/m3 34.85 ug/m3 34.59 ug/m3 21.57 C 82.25 % 1,011.54 mbar 1.96 m/s 133.47 Deg 5.48 ug/m3
2021-05-26 08:00 16.96 ug/m3 1.56 ug/m3 38.42 ug/m3 42.9 ug/m3 20.24 C 92.1 % 1,011.41 mbar 2.56 m/s 63.67 Deg 3.98 ug/m3
2021-05-26 07:00 18.73 ug/m3 1.55 ug/m3 37.12 ug/m3 29.03 ug/m3 19.59 C 94.81 % 1,010.97 mbar 2.52 m/s 51.9 Deg 3.45 ug/m3
2021-05-26 06:00 18.46 ug/m3 1.32 ug/m3 31.26 ug/m3 27.93 ug/m3 19.2 C 91.46 % 1,010.71 mbar 1.9 m/s 51.18 Deg 2.18 ug/m3
2021-05-26 05:00 14.58 ug/m3 1.54 ug/m3 32.52 ug/m3 34.64 ug/m3 18.72 C 91.88 % 1,010.59 mbar 1.8 m/s 54.33 Deg 1.4 ug/m3
2021-05-26 04:00 6.73 ug/m3 1.39 ug/m3 34.76 ug/m3 23.01 ug/m3 18.69 C 98.07 % 1,010.48 mbar 1.43 m/s 43.4 Deg 0.16 ug/m3
2021-05-26 03:00 6.36 ug/m3 1.55 ug/m3 38.18 ug/m3 16.92 ug/m3 19.04 C 97.25 % 1,010.46 mbar 1.1 m/s 43.73 Deg -0.26 ug/m3
2021-05-26 02:00 4.92 ug/m3 1.56 ug/m3 41.36 ug/m3 21.52 ug/m3 19.28 C 93.62 % 1,010.65 mbar 0.88 m/s 47.5 Deg 0.17 ug/m3
2021-05-26 01:00 5.44 ug/m3 1.75 ug/m3 38.64 ug/m3 27.41 ug/m3 19.21 C 95.4 % 1,010.99 mbar 0.76 m/s 47.15 Deg 0.01 ug/m3
2021-05-26 00:00 4.41 ug/m3 1.57 ug/m3 41.81 ug/m3 34.51 ug/m3 19.27 C 96.64 % 1,011.36 mbar 1.4 m/s 52.33 Deg 0.6 ug/m3
2021-05-25 23:00 6.8 ug/m3 1.86 ug/m3 38.42 ug/m3 29.95 ug/m3 19.69 C 92.18 % 1,011.40 mbar 1.6 m/s 96.1 Deg 0.33 ug/m3
2021-05-25 22:00 9.79 ug/m3 1.74 ug/m3 38.02 ug/m3 33.9 ug/m3 20.1 C 88.32 % 1,011.24 mbar 1.61 m/s 65.2 Deg 0.3 ug/m3
2021-05-25 21:00 15.26 ug/m3 1.5 ug/m3 37.46 ug/m3 38.52 ug/m3 20.89 C 82.29 % 1,010.77 mbar 0.95 m/s 289.78 Deg 0.02 ug/m3
2021-05-25 20:00 16.04 ug/m3 1.71 ug/m3 41.04 ug/m3 36.24 ug/m3 21.23 C 80.94 % 1,010.40 mbar 1.12 m/s 256.07 Deg 0.23 ug/m3
2021-05-25 19:00 11.71 ug/m3 1.48 ug/m3 49.32 ug/m3 37.87 ug/m3 21.09 C 86.14 % 1,010.08 mbar 1.62 m/s 106.43 Deg -0.06 ug/m3
2021-05-25 18:00 37.58 ug/m3 1.71 ug/m3 37.82 ug/m3 43.38 ug/m3 22.95 C 76.18 % 1,009.90 mbar 1.8 m/s 137.83 Deg 4.2 ug/m3
2021-05-25 17:00 12.98 ug/m3 1.74 ug/m3 58.52 ug/m3 45.54 ug/m3 22.86 C 75.28 % 1,010.09 mbar 2.18 m/s 67.88 Deg 1.94 ug/m3
2021-05-25 16:00 8.76 ug/m3 1.93 ug/m3 67.17 ug/m3 45.57 ug/m3 22.55 C 76.72 % 1,010.53 mbar 3.06 m/s 59.22 Deg 1.32 ug/m3
2021-05-25 15:00 9.31 ug/m3 1.77 ug/m3 61.74 ug/m3 35.6 ug/m3 23.53 C 72.33 % 1,010.92 mbar 2.31 m/s 146.43 Deg 1.27 ug/m3
2021-05-25 14:00 8.69 ug/m3 1.72 ug/m3 63.89 ug/m3 18.02 ug/m3 23.41 C 71.39 % 1,011.22 mbar 2.94 m/s 106.95 Deg 2.03 ug/m3
2021-05-25 13:00 10.63 ug/m3 1.64 ug/m3 66.87 ug/m3 18.98 ug/m3 23.96 C 63.33 % 1,011.52 mbar 2.12 m/s 129.4 Deg 1.86 ug/m3
2021-05-25 12:00 5.33 ug/m3 1.81 ug/m3 81.23 ug/m3 9.92 ug/m3 23.4 C 64.92 % 1,011.81 mbar 2.42 m/s 130.33 Deg 0.73 ug/m3
2021-05-25 11:00 8.71 ug/m3 1.95 ug/m3 71.06 ug/m3 7.06 ug/m3 23.83 C 59.21 % 1,011.83 mbar 1.78 m/s 117.13 Deg 1.03 ug/m3
2021-05-25 10:00 11.47 ug/m3 1.64 ug/m3 65.93 ug/m3 7.86 ug/m3 23.17 C 59.19 % 1,012.01 mbar 1.52 m/s 150.35 Deg 2.42 ug/m3
2021-05-25 09:00 11.51 ug/m3 1.62 ug/m3 67.8 ug/m3 13.32 ug/m3 22.01 C 63.01 % 1,011.98 mbar 2.02 m/s 71.97 Deg 1.6 ug/m3
2021-05-25 08:00 15.05 ug/m3 1.67 ug/m3 56.41 ug/m3 23.02 ug/m3 20.69 C 74.36 % 1,011.81 mbar 2.82 m/s 50.97 Deg 3.22 ug/m3
2021-05-25 07:00 21.13 ug/m3 1.54 ug/m3 35.66 ug/m3 32.75 ug/m3 19.4 C 94.46 % 1,011.43 mbar 3.05 m/s 143.07 Deg 4.52 ug/m3
2021-05-25 06:00 21.15 ug/m3 1.55 ug/m3 31.38 ug/m3 16.4 ug/m3 18.78 C 99.68 % 1,011.20 mbar 2.83 m/s 115.28 Deg 3.77 ug/m3
2021-05-25 05:00 18.15 ug/m3 1.47 ug/m3 45.37 ug/m3 10.99 ug/m3 18.66 C 95.94 % 1,010.89 mbar 2.26 m/s 183.53 Deg 1.38 ug/m3
2021-05-25 04:00 8.62 ug/m3 1.63 ug/m3 42.26 ug/m3 12.29 ug/m3 18.68 C 98.55 % 1,010.53 mbar 1.65 m/s 95.85 Deg 0.4 ug/m3
2021-05-25 03:00 5.41 ug/m3 1.69 ug/m3 48.22 ug/m3 14.33 ug/m3 18.87 C 99.96 % 1,010.65 mbar 2.06 m/s 108.52 Deg 0.17 ug/m3
2021-05-25 02:00 3.33 ug/m3 1.62 ug/m3 54.19 ug/m3 19.71 ug/m3 18.97 C 97.65 % 1,010.94 mbar 2.42 m/s 227.52 Deg 0.03 ug/m3
2021-05-25 01:00 5.04 ug/m3 1.48 ug/m3 54.45 ug/m3 16.95 ug/m3 19.27 C 92.12 % 1,011.18 mbar 2.18 m/s 262.28 Deg -0.15 ug/m3
2021-05-25 00:00 6.31 ug/m3 1.61 ug/m3 53.55 ug/m3 20.63 ug/m3 19.66 C 86.62 % 1,011.16 mbar 1.37 m/s 46.52 Deg -0.28 ug/m3
2021-05-24 23:00 7.68 ug/m3 1.47 ug/m3 53.83 ug/m3 13.55 ug/m3 19.8 C 85.55 % 1,011.25 mbar 1.13 m/s 43.57 Deg -0.06 ug/m3
2021-05-24 22:00 5.48 ug/m3 1.38 ug/m3 60.8 ug/m3 17.71 ug/m3 19.9 C 86.42 % 1,011.18 mbar 1.36 m/s 61.02 Deg -0.08 ug/m3
2021-05-24 21:00 8.55 ug/m3 1.68 ug/m3 62.82 ug/m3 13.58 ug/m3 20.08 C 86.44 % 1,010.85 mbar 1.91 m/s 52.67 Deg 0.12 ug/m3
2021-05-24 20:00 8.79 ug/m3 1.73 ug/m3 64.58 ug/m3 15.1 ug/m3 20.25 C 85.87 % 1,010.28 mbar 2.31 m/s 56.29 Deg 0.55 ug/m3
2021-05-24 19:00 7.09 ug/m3 1.6 ug/m3 61.88 ug/m3 25 ug/m3 20.79 C 84.76 % 1,009.96 mbar 2.58 m/s 58.15 Deg 0.97 ug/m3
2021-05-24 18:00 3.67 ug/m3 1.66 ug/m3 63.28 ug/m3 12.58 ug/m3 21.44 C 82.27 % 1,009.58 mbar 2.84 m/s 62.93 Deg 0.26 ug/m3
2021-05-24 17:00 2.2 ug/m3 1.45 ug/m3 66.02 ug/m3 9.87 ug/m3 21.77 C 80.85 % 1,009.29 mbar 2.91 m/s 77.52 Deg 0.18 ug/m3
2021-05-24 16:00 2.29 ug/m3 1.44 ug/m3 63.92 ug/m3 15.1 ug/m3 21.94 C 81.06 % 1,009.06 mbar 3.46 m/s 81.82 Deg 0.54 ug/m3
2021-05-24 15:00 -0.03 ug/m3 1.62 ug/m3 70.01 ug/m3 8.67 ug/m3 22.13 C 80.23 % 1,009.37 mbar 4.42 m/s 108.53 Deg -0.04 ug/m3
2021-05-24 14:00 0.56 ug/m3 1.72 ug/m3 71.35 ug/m3 9.32 ug/m3 21.85 C 83.2 % 1,008.63 mbar 6.6 m/s 108.8 Deg 0.29 ug/m3
2021-05-24 13:00 0.55 ug/m3 1.48 ug/m3 77.97 ug/m3 13.29 ug/m3 21.6 C 86.64 % 1,008.97 mbar 6.8 m/s 108.35 Deg 0.42 ug/m3
2021-05-24 12:00 1.2 ug/m3 1.4 ug/m3 83.57 ug/m3 6.97 ug/m3 21.59 C 86.22 % 1,009.65 mbar 6.32 m/s 115.02 Deg 0.31 ug/m3
2021-05-24 11:00 1.46 ug/m3 1.54 ug/m3 73.87 ug/m3 6.36 ug/m3 21.12 C 88.99 % 1,010.13 mbar 5.72 m/s 105.82 Deg 0.06 ug/m3
2021-05-24 10:00 0.53 ug/m3 1.46 ug/m3 82.77 ug/m3 6.14 ug/m3 20.87 C 90.02 % 1,010.20 mbar 5.2 m/s 109.1 Deg 0.5 ug/m3
2021-05-24 09:00 0.36 ug/m3 1.46 ug/m3 62.57 ug/m3 7.67 ug/m3 20.11 C 93.69 % 1,010.27 mbar 4.62 m/s 104.1 Deg 0 ug/m3
2021-05-24 08:00 0.34 ug/m3 1.43 ug/m3 59.13 ug/m3 10.79 ug/m3 19.7 C 95.78 % 1,010.14 mbar 4.28 m/s 109.03 Deg -0.03 ug/m3
2021-05-24 07:00 0.85 ug/m3 1.67 ug/m3 55.73 ug/m3 6.55 ug/m3 19.21 C 99.26 % 1,009.68 mbar 4.04 m/s 109.53 Deg 0.03 ug/m3
2021-05-24 06:00 3.07 ug/m3 1.72 ug/m3 52.78 ug/m3 7.45 ug/m3 18.52 C 99.9 % 1,009.47 mbar 3.41 m/s 117.9 Deg 0.04 ug/m3
2021-05-24 05:00 2.12 ug/m3 1.62 ug/m3 49.06 ug/m3 8.6 ug/m3 18.25 C 99.9 % 1,009.16 mbar 2.81 m/s 112.65 Deg -0.13 ug/m3
2021-05-24 04:00 5.72 ug/m3 1.58 ug/m3 40.08 ug/m3 10.13 ug/m3 18.32 C 99.9 % 1,009.57 mbar 1.78 m/s 84.62 Deg 0.2 ug/m3
2021-05-24 03:00 4.53 ug/m3 1.78 ug/m3 39.73 ug/m3 14.37 ug/m3 18.44 C 99.9 % 1,009.92 mbar 1.38 m/s 70 Deg 0.11 ug/m3
2021-05-24 02:00 0.69 ug/m3 1.61 ug/m3 41.11 ug/m3 12.07 ug/m3 18.6 C 99.9 % 1,010.37 mbar 1.23 m/s 55.5 Deg -0.1 ug/m3
2021-05-24 01:00 0.02 ug/m3 1.61 ug/m3 45.86 ug/m3 8.32 ug/m3 18.61 C 99.91 % 1,010.42 mbar 1.63 m/s 112.27 Deg -0.03 ug/m3
2021-05-24 00:00 1.3 ug/m3 1.39 ug/m3 54.6 ug/m3 10.44 ug/m3 18.74 C 99.91 % 1,010.57 mbar 2.58 m/s 142.58 Deg 0.09 ug/m3
2021-05-23 23:00 2.02 ug/m3 1.59 ug/m3 56 ug/m3 17.23 ug/m3 18.95 C 99.9 % 1,010.78 mbar 3.03 m/s 152.15 Deg -0.05 ug/m3
2021-05-23 22:00 2.67 ug/m3 1.38 ug/m3 56.54 ug/m3 11.88 ug/m3 19.2 C 99.9 % 1,010.75 mbar 3.51 m/s 152.07 Deg -0.08 ug/m3
2021-05-23 21:00 5.98 ug/m3 1.49 ug/m3 56.52 ug/m3 12.31 ug/m3 19.25 C 99.93 % 1,010.43 mbar 4.24 m/s 152.43 Deg 0.04 ug/m3
2021-05-23 20:00 -0.17 ug/m3 1.47 ug/m3 63.65 ug/m3 12.33 ug/m3 19.45 C 99.68 % 1,010.23 mbar 4.15 m/s 149.72 Deg -0.12 ug/m3
2021-05-23 19:00 0.57 ug/m3 1.2 ug/m3 64.4 ug/m3 15.76 ug/m3 19.89 C 97.16 % 1,010.07 mbar 4.32 m/s 148.42 Deg -0.08 ug/m3
2021-05-23 18:00 8.37 ug/m3 1.6 ug/m3 57.15 ug/m3 17.6 ug/m3 20.67 C 93.17 % 1,010.03 mbar 4.87 m/s 152.07 Deg 0.92 ug/m3
2021-05-23 17:00 3.67 ug/m3 1.59 ug/m3 59.9 ug/m3 16.52 ug/m3 20.97 C 90.95 % 1,010.46 mbar 4.86 m/s 166.8 Deg 0.65 ug/m3
2021-05-23 16:00 1.83 ug/m3 1.51 ug/m3 63.53 ug/m3 18.09 ug/m3 20.96 C 91.01 % 1,010.68 mbar 5.2 m/s 167.78 Deg 0.6 ug/m3
2021-05-23 15:00 2.65 ug/m3 1.52 ug/m3 63.9 ug/m3 21.78 ug/m3 21.03 C 89.76 % 1,010.84 mbar 5.38 m/s 165.13 Deg 0.51 ug/m3
2021-05-23 14:00 2.65 ug/m3 1.63 ug/m3 66.07 ug/m3 11.26 ug/m3 21.26 C 87.39 % 1,011.13 mbar 5.09 m/s 164.15 Deg 0.71 ug/m3
2021-05-23 13:00 2.02 ug/m3 1.82 ug/m3 69.71 ug/m3 7.31 ug/m3 21.13 C 87.75 % 1,011.64 mbar 5.03 m/s 166.05 Deg 0.46 ug/m3
2021-05-23 12:00 3.01 ug/m3 1.72 ug/m3 69.4 ug/m3 10.26 ug/m3 20.81 C 88.33 % 1,012.01 mbar 4.81 m/s 169.43 Deg 0.3 ug/m3
2021-05-23 11:00 2.87 ug/m3 1.68 ug/m3 69.12 ug/m3 11.01 ug/m3 20.77 C 87.4 % 1,012.07 mbar 4.45 m/s 159.47 Deg 0.76 ug/m3
2021-05-23 10:00 0.04 ug/m3 1.73 ug/m3 72.54 ug/m3 15.82 ug/m3 20.42 C 89.13 % 1,011.75 mbar 4.19 m/s 141.25 Deg 0.25 ug/m3
2021-05-23 09:00 -0.65 ug/m3 1.49 ug/m3 70.76 ug/m3 10.25 ug/m3 19.88 C 91.02 % 1,011.71 mbar 3.49 m/s 135.55 Deg -0.06 ug/m3
2021-05-23 08:00 0.18 ug/m3 1.5 ug/m3 70.58 ug/m3 10.39 ug/m3 19.41 C 92.52 % 1,011.45 mbar 3.57 m/s 139.97 Deg 0.52 ug/m3
2021-05-23 07:00 0.6 ug/m3 1.52 ug/m3 67.44 ug/m3 8.03 ug/m3 18.92 C 95.07 % 1,011.27 mbar 3.35 m/s 159.12 Deg 0.42 ug/m3
2021-05-23 06:00 0.51 ug/m3 1.46 ug/m3 64.35 ug/m3 6.92 ug/m3 18.34 C 99.25 % 1,010.92 mbar 3.4 m/s 162.57 Deg 0.44 ug/m3
2021-05-23 05:00 1.31 ug/m3 1.82 ug/m3 65.04 ug/m3 6.48 ug/m3 18.26 C 99.57 % 1,010.39 mbar 3.49 m/s 160.22 Deg -0.18 ug/m3
2021-05-23 04:00 -0.9 ug/m3 1.59 ug/m3 70.79 ug/m3 6.71 ug/m3 18.28 C 98.96 % 1,010.21 mbar 4 m/s 159.45 Deg 0.09 ug/m3
2021-05-23 03:00 -0.29 ug/m3 1.56 ug/m3 68.61 ug/m3 8.66 ug/m3 18.27 C 98.38 % 1,010.42 mbar 3.56 m/s 162 Deg -0.17 ug/m3
2021-05-23 02:00 0.45 ug/m3 1.49 ug/m3 69.07 ug/m3 10.67 ug/m3 18.28 C 97.66 % 1,010.82 mbar 4.15 m/s 159.57 Deg -0.08 ug/m3
2021-05-23 01:00 0.67 ug/m3 1.68 ug/m3 62.47 ug/m3 13.35 ug/m3 18.19 C 97.03 % 1,011.50 mbar 2.44 m/s 152.07 Deg 0.24 ug/m3
2021-05-23 00:00 0.16 ug/m3 1.65 ug/m3 70.82 ug/m3 20.7 ug/m3 18.47 C 95.12 % 1,011.69 mbar 3.13 m/s 159.85 Deg -0.02 ug/m3
2021-05-22 23:00 0.04 ug/m3 1.51 ug/m3 74.22 ug/m3 18.38 ug/m3 18.58 C 93.33 % 1,011.73 mbar 3.83 m/s 162 Deg -0.26 ug/m3
2021-05-22 22:00 6.2 ug/m3 1.66 ug/m3 73.34 ug/m3 16.81 ug/m3 18.73 C 91.06 % 1,011.72 mbar 4.53 m/s 162.05 Deg 0.28 ug/m3
2021-05-22 21:00 1.06 ug/m3 1.63 ug/m3 80.41 ug/m3 11.96 ug/m3 18.84 C 89.09 % 1,011.53 mbar 4.38 m/s 156.8 Deg -0.08 ug/m3
2021-05-22 20:00 0.02 ug/m3 1.8 ug/m3 81.42 ug/m3 14.48 ug/m3 19 C 87.31 % 1,011.18 mbar 4.33 m/s 161.95 Deg -0.1 ug/m3
2021-05-22 19:00 0.19 ug/m3 1.69 ug/m3 84.8 ug/m3 14.67 ug/m3 19.39 C 83.58 % 1,011.10 mbar 5.64 m/s 164 Deg 0.27 ug/m3
2021-05-22 18:00 3.73 ug/m3 1.69 ug/m3 81 ug/m3 10.87 ug/m3 19.92 C 80.81 % 1,011.17 mbar 5.65 m/s 162.98 Deg 0.73 ug/m3
2021-05-22 17:00 1.13 ug/m3 1.66 ug/m3 84.7 ug/m3 11.36 ug/m3 20.16 C 78.42 % 1,011.33 mbar 6.04 m/s 168.33 Deg 0.5 ug/m3
2021-05-22 16:00 7.28 ug/m3 1.66 ug/m3 81.65 ug/m3 7.21 ug/m3 20.28 C 78.44 % 1,011.67 mbar 6.36 m/s 162.33 Deg 2.57 ug/m3
2021-05-22 15:00 0.26 ug/m3 1.66 ug/m3 86.47 ug/m3 9.9 ug/m3 20.5 C 75.65 % 1,012.45 mbar 5.85 m/s 167.82 Deg 0.33 ug/m3
2021-05-22 14:00 0.84 ug/m3 1.8 ug/m3 91.77 ug/m3 8.17 ug/m3 20.56 C 74.21 % 1,013.00 mbar 5.66 m/s 159.9 Deg 0.09 ug/m3
2021-05-22 13:00 3 ug/m3 1.65 ug/m3 91.37 ug/m3 8.83 ug/m3 20.49 C 73.36 % 1,013.22 mbar 6.09 m/s 162.32 Deg 0.8 ug/m3
2021-05-22 12:00 2.33 ug/m3 1.65 ug/m3 91.24 ug/m3 14.91 ug/m3 20.57 C 71.8 % 1,013.35 mbar 6.04 m/s 169.43 Deg 0.64 ug/m3
2021-05-22 11:00 1.11 ug/m3 1.75 ug/m3 87.77 ug/m3 19.14 ug/m3 20.32 C 74.86 % 1,013.39 mbar 6.53 m/s 169.72 Deg 0.18 ug/m3
2021-05-22 10:00 1.7 ug/m3 1.86 ug/m3 85.81 ug/m3 16.48 ug/m3 19.92 C 76.84 % 1,012.91 mbar 5.85 m/s 164.78 Deg 0.34 ug/m3
2021-05-22 09:00 2.52 ug/m3 1.81 ug/m3 84.26 ug/m3 14.51 ug/m3 19.67 C 77.37 % 1,012.96 mbar 5.36 m/s 168.1 Deg 0.49 ug/m3
2021-05-22 08:00 10.54 ug/m3 1.9 ug/m3 75.66 ug/m3 19.2 ug/m3 19.4 C 76.75 % 1,012.72 mbar 5.01 m/s 170.8 Deg 1.54 ug/m3
2021-05-22 07:00 20.22 ug/m3 1.88 ug/m3 66.12 ug/m3 13.56 ug/m3 18.75 C 79.15 % 1,012.49 mbar 4.43 m/s 179.7 Deg 2.28 ug/m3
2021-05-22 06:00 21.31 ug/m3 1.59 ug/m3 61.82 ug/m3 10.47 ug/m3 18.14 C 80.1 % 1,012.67 mbar 3.05 m/s 181.57 Deg 0.45 ug/m3
2021-05-22 05:00 25.62 ug/m3 1.82 ug/m3 57.05 ug/m3 14.18 ug/m3 17.75 C 80.53 % 1,012.52 mbar 2.65 m/s 183.92 Deg 0.2 ug/m3
2021-05-22 04:00 17.33 ug/m3 1.68 ug/m3 61.38 ug/m3 6.6 ug/m3 17.83 C 78.35 % 1,012.42 mbar 2.67 m/s 181.87 Deg 0.08 ug/m3
2021-05-22 03:00 22.63 ug/m3 1.71 ug/m3 50.94 ug/m3 4.19 ug/m3 17.87 C 78.38 % 1,012.32 mbar 2.55 m/s 177.48 Deg -0.13 ug/m3
2021-05-22 02:00 19.7 ug/m3 1.96 ug/m3 52.54 ug/m3 6.75 ug/m3 18.03 C 80.58 % 1,012.49 mbar 3.06 m/s 177.92 Deg -0.02 ug/m3
2021-05-22 01:00 27.7 ug/m3 1.88 ug/m3 47.64 ug/m3 9.81 ug/m3 18.12 C 81.44 % 1,013.26 mbar 2.82 m/s 184.55 Deg -0.21 ug/m3
2021-05-22 00:00 30.24 ug/m3 1.78 ug/m3 51.26 ug/m3 11.84 ug/m3 18.31 C 80 % 1,013.88 mbar 2.89 m/s 185.73 Deg -0.01 ug/m3
2021-05-21 23:00 30.13 ug/m3 1.95 ug/m3 48.94 ug/m3 14.65 ug/m3 18.46 C 80.28 % 1,014.30 mbar 2.84 m/s 185.53 Deg 0.04 ug/m3
2021-05-21 22:00 5.79 ug/m3 1.81 ug/m3 62.35 ug/m3 15.13 ug/m3 18.49 C 82.68 % 1,014.30 mbar 2.74 m/s 179.15 Deg 0.06 ug/m3
2021-05-21 21:00 1.55 ug/m3 1.56 ug/m3 69.38 ug/m3 16.97 ug/m3 18.59 C 80.29 % 1,014.21 mbar 2.38 m/s 173.03 Deg 0.04 ug/m3
2021-05-21 20:00 2.36 ug/m3 1.91 ug/m3 73.36 ug/m3 17.07 ug/m3 18.69 C 76.35 % 1,014.05 mbar 2.57 m/s 165.83 Deg -0.16 ug/m3
2021-05-21 19:00 3.22 ug/m3 1.65 ug/m3 78.66 ug/m3 12.43 ug/m3 19.12 C 72.46 % 1,013.90 mbar 3.05 m/s 171.57 Deg 0.4 ug/m3
2021-05-21 18:00 1.46 ug/m3 1.94 ug/m3 80.89 ug/m3 12.4 ug/m3 19.73 C 65.43 % 1,014.01 mbar 2.9 m/s 168.13 Deg 0.1 ug/m3
2021-05-21 17:00 0.74 ug/m3 1.86 ug/m3 85.19 ug/m3 17.69 ug/m3 19.93 C 65.89 % 1,014.08 mbar 3.52 m/s 168.98 Deg 0.17 ug/m3
2021-05-21 16:00 2.95 ug/m3 1.74 ug/m3 89.62 ug/m3 10.58 ug/m3 20.01 C 69.19 % 1,014.08 mbar 4.44 m/s 162.85 Deg 0.33 ug/m3
2021-05-21 15:00 0.09 ug/m3 2.01 ug/m3 90.49 ug/m3 8.68 ug/m3 19.93 C 67.59 % 1,014.22 mbar 4.78 m/s 126.38 Deg 0.1 ug/m3
2021-05-21 14:00 2.96 ug/m3 1.84 ug/m3 86.09 ug/m3 10.71 ug/m3 20.4 C 61.23 % 1,014.62 mbar 4.15 m/s 107.23 Deg 0.57 ug/m3
2021-05-21 13:00 1.64 ug/m3 1.79 ug/m3 89.16 ug/m3 16.29 ug/m3 20.28 C 60.9 % 1,014.74 mbar 4.62 m/s 104.35 Deg 0.07 ug/m3
2021-05-21 12:00 2.38 ug/m3 1.86 ug/m3 81.12 ug/m3 17.54 ug/m3 20.21 C 67.24 % 1,015.04 mbar 3.9 m/s 97.5 Deg 0.36 ug/m3
2021-05-21 11:00 1.33 ug/m3 1.76 ug/m3 81.54 ug/m3 21 ug/m3 19.95 C 69.14 % 1,015.28 mbar 4.13 m/s 98.47 Deg 0.03 ug/m3
2021-05-21 10:00 1.4 ug/m3 1.85 ug/m3 76.18 ug/m3 33.98 ug/m3 19.9 C 73.83 % 1,015.14 mbar 3.38 m/s 94.73 Deg 0.23 ug/m3
2021-05-21 09:00 3.68 ug/m3 1.79 ug/m3 71.42 ug/m3 25.13 ug/m3 19.7 C 75.25 % 1,014.73 mbar 3.31 m/s 88.58 Deg 0.46 ug/m3
2021-05-21 08:00 9.82 ug/m3 1.8 ug/m3 67.06 ug/m3 25.95 ug/m3 19.3 C 71.76 % 1,014.14 mbar 3.16 m/s 58.83 Deg 1.48 ug/m3
2021-05-21 07:00 12.47 ug/m3 1.89 ug/m3 63.61 ug/m3 12.52 ug/m3 18.59 C 67.46 % 1,013.70 mbar 3.27 m/s 40.47 Deg 2.18 ug/m3
2021-05-21 06:00 18.64 ug/m3 1.91 ug/m3 53.12 ug/m3 9.52 ug/m3 17.89 C 67.67 % 1,013.27 mbar 2.39 m/s 39.92 Deg 2.02 ug/m3
2021-05-21 05:00 8.45 ug/m3 2.02 ug/m3 59.5 ug/m3 11.95 ug/m3 17.67 C 68.26 % 1,012.89 mbar 2.52 m/s 36.33 Deg 1.12 ug/m3
2021-05-21 04:00 4.53 ug/m3 1.75 ug/m3 60.58 ug/m3 12.86 ug/m3 17.73 C 74.12 % 1,012.51 mbar 2.6 m/s 36.55 Deg -0.02 ug/m3
2021-05-21 03:00 1.59 ug/m3 1.95 ug/m3 65.72 ug/m3 14.61 ug/m3 17.93 C 79.64 % 1,012.55 mbar 2.6 m/s 48.1 Deg 0.11 ug/m3
2021-05-21 02:00 5.68 ug/m3 1.7 ug/m3 53.06 ug/m3 21.15 ug/m3 17.93 C 82.19 % 1,012.58 mbar 1.97 m/s 58.2 Deg -0.08 ug/m3
2021-05-21 01:00 4.94 ug/m3 1.84 ug/m3 51.03 ug/m3 35.37 ug/m3 18.05 C 85.16 % 1,012.62 mbar 1.45 m/s 51.67 Deg -0.02 ug/m3
2021-05-21 00:00 4.36 ug/m3 1.85 ug/m3 56.22 ug/m3 32.52 ug/m3 18.14 C 85.13 % 1,012.48 mbar 1.93 m/s 47.75 Deg -0.12 ug/m3
2021-05-20 23:00 4.42 ug/m3 1.74 ug/m3 60.08 ug/m3 38.54 ug/m3 18.44 C 81.16 % 1,012.22 mbar 2.38 m/s 36.9 Deg 0.15 ug/m3
2021-05-20 22:00 12.94 ug/m3 1.87 ug/m3 53.08 ug/m3 37.22 ug/m3 18.52 C 83.14 % 1,011.61 mbar 4.46 m/s 177.23 Deg 0.03 ug/m3
2021-05-20 21:00 14.31 ug/m3 1.77 ug/m3 59.08 ug/m3 37.97 ug/m3 18.45 C 79.14 % 1,011.07 mbar 5.12 m/s 236.82 Deg 0.49 ug/m3
2021-05-20 20:00 12.31 ug/m3 2 ug/m3 63.27 ug/m3 36.81 ug/m3 18.82 C 69.5 % 1,010.44 mbar 4.41 m/s 248.55 Deg 0.76 ug/m3
2021-05-20 19:00 6.37 ug/m3 1.88 ug/m3 65.73 ug/m3 35.96 ug/m3 19.67 C 64.03 % 1,009.81 mbar 4.13 m/s 284.58 Deg 0.42 ug/m3
2021-05-20 18:00 -2.35 ug/m3 2.04 ug/m3 69.67 ug/m3 34.1 ug/m3 20.43 C 60.05 % 1,009.34 mbar 4.04 m/s 296.53 Deg -0.9 ug/m3
2021-05-20 17:00 6.49 ug/m3 2.01 ug/m3 76.83 ug/m3 30.02 ug/m3 21.66 C 50.09 % 1,008.97 mbar 4.89 m/s 302.77 Deg 1.4 ug/m3
2021-05-20 16:00 8.55 ug/m3 1.92 ug/m3 73.89 ug/m3 44.24 ug/m3 22.03 C 50.41 % 1,008.94 mbar 4.64 m/s 278.83 Deg 1.75 ug/m3
2021-05-20 15:00 9.96 ug/m3 1.94 ug/m3 72.49 ug/m3 41.26 ug/m3 22.15 C 51.26 % 1,009.04 mbar 5.02 m/s 320.63 Deg 2.61 ug/m3
2021-05-20 14:00 8.75 ug/m3 2.12 ug/m3 73.02 ug/m3 48.81 ug/m3 21.82 C 51.34 % 1,009.16 mbar 5.23 m/s 303.18 Deg 2.32 ug/m3
2021-05-20 13:00 14.83 ug/m3 1.8 ug/m3 67.44 ug/m3 58.2 ug/m3 21.22 C 54.3 % 1,009.15 mbar 6.69 m/s 242.72 Deg 3.93 ug/m3
2021-05-20 12:00 21.83 ug/m3 1.86 ug/m3 60.71 ug/m3 43.08 ug/m3 20.92 C 53.6 % 1,009.21 mbar 6.62 m/s 282.9 Deg 6.9 ug/m3
2021-05-20 11:00 22.59 ug/m3 1.83 ug/m3 54.95 ug/m3 41.64 ug/m3 20.84 C 50.51 % 1,009.34 mbar 6.43 m/s 276.22 Deg 6.8 ug/m3
2021-05-20 10:00 15.6 ug/m3 1.56 ug/m3 58.15 ug/m3 38.22 ug/m3 20.82 C 59.15 % 1,009.06 mbar 6.45 m/s 293.85 Deg 6.04 ug/m3
2021-05-20 09:00 10.91 ug/m3 2.04 ug/m3 58.94 ug/m3 39.3 ug/m3 20.26 C 68.02 % 1,009.15 mbar 4.46 m/s 305.03 Deg 3.15 ug/m3
2021-05-20 08:00 13.73 ug/m3 2.03 ug/m3 56.89 ug/m3 36.09 ug/m3 19.54 C 64.32 % 1,009.04 mbar 4.9 m/s 320.32 Deg 3.47 ug/m3
2021-05-20 07:00 19.68 ug/m3 1.81 ug/m3 48.66 ug/m3 22.69 ug/m3 19.43 C 59.34 % 1,008.40 mbar 3.52 m/s 298.53 Deg 3.69 ug/m3
2021-05-20 06:00 14.21 ug/m3 1.93 ug/m3 55.78 ug/m3 20.2 ug/m3 19.11 C 62.99 % 1,008.04 mbar 4.07 m/s 291.25 Deg 1.74 ug/m3
2021-05-20 05:00 6.3 ug/m3 2.02 ug/m3 60.65 ug/m3 16.71 ug/m3 19.15 C 70.65 % 1,007.74 mbar 4.25 m/s 298.73 Deg 0.3 ug/m3
2021-05-20 04:00 3.06 ug/m3 1.9 ug/m3 58.53 ug/m3 16.36 ug/m3 19.51 C 69.6 % 1,007.38 mbar 3.86 m/s 316.15 Deg 0.03 ug/m3
2021-05-20 03:00 2.01 ug/m3 1.92 ug/m3 59.22 ug/m3 13.83 ug/m3 19.35 C 75.52 % 1,007.26 mbar 3.5 m/s 300.3 Deg 0.33 ug/m3
2021-05-20 02:00 1.26 ug/m3 2.15 ug/m3 62.43 ug/m3 16.95 ug/m3 19.67 C 71.41 % 1,007.51 mbar 2.78 m/s 320.17 Deg 0.09 ug/m3
2021-05-20 01:00 2.26 ug/m3 2.22 ug/m3 63.92 ug/m3 22.6 ug/m3 20.17 C 66.49 % 1,007.93 mbar 3.02 m/s 307.1 Deg -0.02 ug/m3
2021-05-20 00:00 3.66 ug/m3 2.04 ug/m3 61.15 ug/m3 25.34 ug/m3 20.67 C 60.6 % 1,008.11 mbar 2.74 m/s 301.97 Deg 0.38 ug/m3
2021-05-19 23:00 4.17 ug/m3 1.93 ug/m3 66.64 ug/m3 25.81 ug/m3 20.91 C 55.88 % 1,008.26 mbar 2.7 m/s 302.98 Deg 0.17 ug/m3
2021-05-19 22:00 6.5 ug/m3 1.98 ug/m3 68.16 ug/m3 21.61 ug/m3 21.01 C 54.96 % 1,008.11 mbar 2.94 m/s 316.38 Deg 0.55 ug/m3
2021-05-19 21:00 9.64 ug/m3 1.87 ug/m3 66.11 ug/m3 17.35 ug/m3 21.51 C 50.91 % 1,007.83 mbar 2.69 m/s 307.88 Deg 0.16 ug/m3
2021-05-19 20:00 15.16 ug/m3 1.88 ug/m3 65.18 ug/m3 22.44 ug/m3 22.22 C 47.89 % 1,007.50 mbar 2.42 m/s 306.43 Deg 1.1 ug/m3
2021-05-19 19:00 17.47 ug/m3 2.05 ug/m3 62.63 ug/m3 20.13 ug/m3 24.02 C 42.56 % 1,007.27 mbar 1.89 m/s 256.05 Deg 0.37 ug/m3
2021-05-19 18:00 29.65 ug/m3 2.05 ug/m3 55.36 ug/m3 30.77 ug/m3 26.2 C 32.72 % 1,007.04 mbar 1.91 m/s 202.67 Deg 2.86 ug/m3
2021-05-19 17:00 28.94 ug/m3 1.84 ug/m3 55.91 ug/m3 33.6 ug/m3 25.91 C 36.06 % 1,007.07 mbar 2.94 m/s 264.87 Deg 4.77 ug/m3
2021-05-19 16:00 26.2 ug/m3 2 ug/m3 58.82 ug/m3 25.96 ug/m3 25.26 C 41.52 % 1,007.22 mbar 3.65 m/s 266.28 Deg 5.26 ug/m3
2021-05-19 15:00 31.38 ug/m3 1.88 ug/m3 51.03 ug/m3 17.32 ug/m3 25.39 C 35.97 % 1,007.25 mbar 4.19 m/s 227.75 Deg 7.78 ug/m3
2021-05-19 14:00 31.23 ug/m3 1.93 ug/m3 50.21 ug/m3 22.22 ug/m3 24.53 C 28.94 % 1,007.87 mbar 4.38 m/s 222.38 Deg 8.31 ug/m3
2021-05-19 13:00 10.95 ug/m3 1.69 ug/m3 69.39 ug/m3 25.5 ug/m3 24.06 C 53.86 % 1,008.21 mbar 4.24 m/s 201.38 Deg 2.08 ug/m3
2021-05-19 12:00 14.35 ug/m3 1.93 ug/m3 61.86 ug/m3 42.36 ug/m3 24.61 C 57.71 % 1,008.54 mbar 2.71 m/s 184.62 Deg 2.8 ug/m3
2021-05-19 11:00 15.63 ug/m3 2.02 ug/m3 56.75 ug/m3 51.22 ug/m3 24.34 C 55.58 % 1,008.94 mbar 2.17 m/s 88.17 Deg 3.3 ug/m3
2021-05-19 10:00 20.24 ug/m3 1.75 ug/m3 52.68 ug/m3 35.19 ug/m3 24.7 C 42.9 % 1,008.73 mbar 1.81 m/s 239.58 Deg 4.62 ug/m3
2021-05-19 09:00 20.9 ug/m3 2 ug/m3 50.41 ug/m3 29.53 ug/m3 23.45 C 39.54 % 1,008.80 mbar 2.67 m/s 265.12 Deg 4.05 ug/m3
2021-05-19 08:00 31.08 ug/m3 1.93 ug/m3 36.55 ug/m3 30.08 ug/m3 22.34 C 44.05 % 1,008.74 mbar 2.16 m/s 294.67 Deg 6.94 ug/m3
2021-05-19 07:00 41.55 ug/m3 2 ug/m3 22.5 ug/m3 32.39 ug/m3 20.37 C 56.84 % 1,008.71 mbar 1.4 m/s 278.75 Deg 9.46 ug/m3
2021-05-19 06:00 33.35 ug/m3 2.11 ug/m3 22.93 ug/m3 16.44 ug/m3 18.79 C 72.43 % 1,008.50 mbar 1.57 m/s 305.1 Deg 4.25 ug/m3
2021-05-19 05:00 19.54 ug/m3 2 ug/m3 27.25 ug/m3 13.33 ug/m3 18.8 C 72.69 % 1,007.99 mbar 0.94 m/s 297.95 Deg 0.81 ug/m3
2021-05-19 04:00 20.12 ug/m3 2.15 ug/m3 28.89 ug/m3 8.65 ug/m3 19.18 C 72.69 % 1,008.08 mbar 1.37 m/s 289.63 Deg 0.46 ug/m3
2021-05-19 03:00 7.48 ug/m3 2.24 ug/m3 36.28 ug/m3 8.13 ug/m3 19.02 C 72.43 % 1,007.96 mbar 1.13 m/s 309.88 Deg 0.11 ug/m3
2021-05-19 02:00 6.92 ug/m3 2.05 ug/m3 40.12 ug/m3 10.74 ug/m3 19.32 C 69.12 % 1,008.28 mbar 1.14 m/s 295.92 Deg 0.36 ug/m3
2021-05-19 01:00 7.01 ug/m3 1.59 ug/m3 39.77 ug/m3 18.29 ug/m3 19.24 C 71.77 % 1,008.92 mbar 1.23 m/s 308.08 Deg 0.03 ug/m3
2021-05-19 00:00 11.65 ug/m3 1.97 ug/m3 35.74 ug/m3 30.17 ug/m3 19.24 C 75.52 % 1,009.30 mbar 0.9 m/s 266.75 Deg -0.13 ug/m3
2021-05-18 23:00 9.15 ug/m3 2.18 ug/m3 44.19 ug/m3 20.96 ug/m3 19.55 C 78.99 % 1,009.65 mbar 0.75 m/s 75.43 Deg -0.04 ug/m3
2021-05-18 22:00 15.38 ug/m3 1.9 ug/m3 37.16 ug/m3 29.43 ug/m3 19.42 C 79.44 % 1,009.65 mbar 0.59 m/s 194.57 Deg 0.54 ug/m3
2021-05-18 21:00 12.61 ug/m3 1.97 ug/m3 40.53 ug/m3 21.87 ug/m3 19.48 C 86.7 % 1,009.24 mbar 0.54 m/s 182.28 Deg 0.13 ug/m3
2021-05-18 20:00 36.67 ug/m3 1.84 ug/m3 36.32 ug/m3 30.52 ug/m3 19.69 C 84.7 % 1,008.78 mbar 1.46 m/s 182.57 Deg 0.28 ug/m3
2021-05-18 19:00 10.19 ug/m3 1.74 ug/m3 59.07 ug/m3 37.83 ug/m3 20.33 C 81.01 % 1,008.45 mbar 1.79 m/s 163.2 Deg 0.01 ug/m3
2021-05-18 18:00 7.51 ug/m3 1.92 ug/m3 64.36 ug/m3 26.57 ug/m3 21.61 C 75.15 % 1,008.20 mbar 1.84 m/s 169.23 Deg 0.4 ug/m3
2021-05-18 17:00 9.39 ug/m3 2.1 ug/m3 62.31 ug/m3 18.07 ug/m3 23.69 C 53.04 % 1,008.31 mbar 1.68 m/s 218.27 Deg 1.29 ug/m3
2021-05-18 16:00 7.24 ug/m3 1.85 ug/m3 62.73 ug/m3 12.69 ug/m3 23.37 C 52.94 % 1,008.54 mbar 3.12 m/s 112.55 Deg 1.26 ug/m3
2021-05-18 15:00 7.17 ug/m3 2.03 ug/m3 61.56 ug/m3 15.9 ug/m3 23.07 C 55.76 % 1,009.05 mbar 3.47 m/s 135 Deg 1.57 ug/m3

It is to be noted that the data is provisional and subject to quality assurance procedures. For validated data kindly refer your request to contact.air@era.org.mt